NOAA Web Site Link Tides and Currents Home Page Transparent placeholder image

Parts of the U.S. Government are closed. However, because the information this site provides is necessary to protect life and property, it will be updated and maintained during the Federal Government shutdown. For critical weather information, please visit www.weather.gov. To learn more, see www.commerce.gov.

PORTS® Data Listing: 8638901 CBBT, Chesapeake Channel, VA

CO-OPS RAW PORTS DATA

************************      PRELIMINARY DATA      ************************** 

     THIS RAW DATA HAS NOT BEEN SUBJECT TO THE NATIONAL OCEAN SERVICE'S        
     QUALITY CONTROL OR QUALITY ASSURANCE PROCEDURES AND DOES NOT MEET         
     THE CRITERIA AND STANDARDS OF OFFICIAL NATIONAL OCEAN SERVICE             
     DATA.  IT IS RELEASED FOR LIMITED PUBLIC USE AS PRELIMINARY DATA TO       
     BE USED ONLY WITH APPROPRIATE CAUTION.                                    

************************      PRELIMINARY DATA      ************************** 


       CD   -   Calendar date
       T    -   Time
       TZ   -   Timezone
       PW   -   Predicted water level (feet above MLLW)
       OW   -   Observed water level (feet above MLLW)
       WS   -   Wind speed (knots)
       WD   -   Wind direction (degrees true)
       WG   -   Wind gust (knots)
       AT   -   Air temperature (degrees farenheit)
       WT   -   Water temperature (degrees farenheit)
       AP   -   Air pressure (millibars)
       SA   -   Salinty (PSU - Practical Salinity Units)
       SG   -   Specific gravity
       RH   -   Relative humidity
       AG   -   Air gap (feet)
       VI   -   Visibility (nautical miles)

       ** NOTE **
       A variable that has its data fields filled with "9"s, indicates that
       data was not collected for that sample period.
       **********

NOTICE OF PROVISIONAL DATUM
These datums and any data referred to said datum are PROVISIONAL and
subject to revision until they have been thoroughly reviewed and received final
approval.  Subsequent review based on field inspections and additional
measurements may result in revisions to the data and datums.  Data users are
cautioned to consider the conditional nature of this information before using
it for critical decisions such as those that concern physical or public safety.
Only after meeting all standards for quality control assurance will the datums
be classified as Accepted Datums.

STATION NAME: CBBT, Chesapeake Channel (8638901)
****************************************************************************************************
    CD       T    TZ    PW     OW    WS   WD   WG    AT    WT    AP    SA    SG     RH    AG   VI
****************************************************************************************************
2019/01/13 02:36 EST    1.76   2.58   13   68   14  40.8 -99.9 1026.4 -9.9 -9.999 -99.9 -99.99 -9.99
2019/01/13 02:42 EST    1.73   2.56   12   72   14  41.0 -99.9 1026.1 -9.9 -9.999 -99.9 -99.99 -9.99
2019/01/13 02:48 EST    1.69   2.50   12   69   15  41.0 -99.9 1025.9 -9.9 -9.999 -99.9 -99.99 -9.99
2019/01/13 02:54 EST    1.65   2.48   15   67   17  41.0 -99.9 1025.7 -9.9 -9.999 -99.9 -99.99 -9.99
2019/01/13 03:00 EST    1.61   2.44   14   70   16  41.2 -99.9 1025.7 -9.9 -9.999 -99.9 -99.99 -9.99
2019/01/13 03:06 EST    1.57   2.42   14   66   17  41.2 -99.9 1025.5 -9.9 -9.999 -99.9 -99.99 -9.99
2019/01/13 03:12 EST    1.53   2.35   15   66   17  41.2 -99.9 1025.3 -9.9 -9.999 -99.9 -99.99 -9.99
2019/01/13 03:18 EST    1.49   2.32   16   65   18  41.2 -99.9 1025.5 -9.9 -9.999 -99.9 -99.99 -9.99
2019/01/13 03:24 EST    1.45   2.27   15   65   18  41.2 -99.9 1025.2 -9.9 -9.999 -99.9 -99.99 -9.99
2019/01/13 03:30 EST    1.41   2.19   16   60   17  41.2 -99.9 1025.1 -9.9 -9.999 -99.9 -99.99 -9.99
2019/01/13 03:36 EST    1.36   2.22   16   63   17  41.0 -99.9 1025.1 -9.9 -9.999 -99.9 -99.99 -9.99
2019/01/13 03:42 EST    1.32   2.11   17   62   19  40.8 -99.9 1024.9 -9.9 -9.999 -99.9 -99.99 -9.99
2019/01/13 03:48 EST    1.28   2.09   16   60   18  41.0 -99.9 1024.8 -9.9 -9.999 -99.9 -99.99 -9.99
2019/01/13 03:54 EST    1.23   2.05   16   60   19  41.0 -99.9 1024.7 -9.9 -9.999 -99.9 -99.99 -9.99
2019/01/13 04:00 EST    1.19   2.01   16   61   17  41.0 -99.9 1024.4 -9.9 -9.999 -99.9 -99.99 -9.99
2019/01/13 04:06 EST    1.14   1.96   17   62   19  41.0 -99.9 1024.2 -9.9 -9.999 -99.9 -99.99 -9.99
2019/01/13 04:12 EST    1.10   1.92   16   65   20  40.8 -99.9 1024.3 -9.9 -9.999 -99.9 -99.99 -9.99
2019/01/13 04:18 EST    1.06   1.89   15   66   19  41.0 -99.9 1024.4 -9.9 -9.999 -99.9 -99.99 -9.99
2019/01/13 04:24 EST    1.01   1.82   17   67   20  41.0 -99.9 1024.3 -9.9 -9.999 -99.9 -99.99 -9.99
2019/01/13 04:30 EST    0.97   1.84   15   67   19  41.0 -99.9 1024.3 -9.9 -9.999 -99.9 -99.99 -9.99
2019/01/13 04:36 EST    0.92   1.85   15   64   18  41.0 -99.9 1024.0 -9.9 -9.999 -99.9 -99.99 -9.99
2019/01/13 04:42 EST    0.88   1.80   16   65   19  41.2 -99.9 1023.8 -9.9 -9.999 -99.9 -99.99 -9.99
2019/01/13 04:48 EST    0.84   1.78   16   64   19  41.2 -99.9 1023.7 -9.9 -9.999 -99.9 -99.99 -9.99
2019/01/13 04:54 EST    0.80   1.75   15   61   18  41.2 -99.9 1023.8 -9.9 -9.999 -99.9 -99.99 -9.99
2019/01/13 05:00 EST    0.76   1.68   16   56   18  41.2 -99.9 1023.8 -9.9 -9.999 -99.9 -99.99 -9.99
2019/01/13 05:06 EST    0.72   1.62   16   59   19  41.4 -99.9 1023.7 -9.9 -9.999 -99.9 -99.99 -9.99
2019/01/13 05:12 EST    0.68   1.55   17   58   20  41.2 -99.9 1023.6 -9.9 -9.999 -99.9 -99.99 -9.99
2019/01/13 05:18 EST    0.64   1.59   15   62   19  41.4 -99.9 1023.4 -9.9 -9.999 -99.9 -99.99 -9.99
2019/01/13 05:24 EST    0.61   1.48   16   62   19  41.4 -99.9 1023.3 -9.9 -9.999 -99.9 -99.99 -9.99
2019/01/13 05:30 EST    0.57   1.47   16   65   19  41.4 -99.9 1023.2 -9.9 -9.999 -99.9 -99.99 -9.99
2019/01/13 05:36 EST    0.54   1.49   16   59   20  41.4 -99.9 1023.2 -9.9 -9.999 -99.9 -99.99 -9.99
2019/01/13 05:42 EST    0.51   1.49   16   59   19  41.5 -99.9 1023.2 -9.9 -9.999 -99.9 -99.99 -9.99
2019/01/13 05:48 EST    0.48   1.39   17   57   20  41.5 -99.9 1023.1 -9.9 -9.999 -99.9 -99.99 -9.99
2019/01/13 05:54 EST    0.46   1.43   19   63   21  41.5 -99.9 1022.8 -9.9 -9.999 -99.9 -99.99 -9.99
2019/01/13 06:00 EST    0.43   1.38   18   64   22  41.5 -99.9 1022.7 -9.9 -9.999 -99.9 -99.99 -9.99
2019/01/13 06:06 EST    0.41   1.37   18   66   21  41.5 -99.9 1022.5 -9.9 -9.999 -99.9 -99.99 -9.99
2019/01/13 06:12 EST    0.39   1.37   19   65   22  41.7 -99.9 1022.7 -9.9 -9.999 -99.9 -99.99 -9.99
2019/01/13 06:18 EST    0.37   1.36   19   65   22  41.7 -99.9 1022.7 -9.9 -9.999 -99.9 -99.99 -9.99
2019/01/13 06:24 EST    0.36   1.36   18   64   21  41.9 -99.9 1022.7 -9.9 -9.999 -99.9 -99.99 -9.99
2019/01/13 06:30 EST    0.34   1.38   18   63   21  41.9 -99.9 1022.7 -9.9 -9.999 -99.9 -99.99 -9.99
2019/01/13 06:36 EST    0.33   1.35   17   63   21  41.9 -99.9 1022.7 -9.9 -9.999 -99.9 -99.99 -9.99
2019/01/13 06:42 EST    0.33   1.32   18   65   21  41.9 -99.9 1022.5 -9.9 -9.999 -99.9 -99.99 -9.99
2019/01/13 06:48 EST    0.32   1.32   18   65   22  42.1 -99.9 1022.3 -9.9 -9.999 -99.9 -99.99 -9.99
2019/01/13 06:54 EST    0.32   1.34   17   66   21  42.3 -99.9 1022.3 -9.9 -9.999 -99.9 -99.99 -9.99
2019/01/13 07:00 EST    0.32   1.37   19   65   22  42.3 -99.9 1022.3 -9.9 -9.999 -99.9 -99.99 -9.99
2019/01/13 07:06 EST    0.32   1.40   18   62   20  42.3 -99.9 1022.2 -9.9 -9.999 -99.9 -99.99 -9.99
2019/01/13 07:12 EST    0.32   1.40   18   63   20  42.3 -99.9 1022.2 -9.9 -9.999 -99.9 -99.99 -9.99
2019/01/13 07:18 EST    0.33   1.41   19   57   22  42.3 -99.9 1022.1 -9.9 -9.999 -99.9 -99.99 -9.99
2019/01/13 07:24 EST    0.34   1.44   17   60   23  42.4 -99.9 1022.1 -9.9 -9.999 -99.9 -99.99 -9.99
2019/01/13 07:30 EST    0.35   1.46   19   58   22  42.3 -99.9 1022.0 -9.9 -9.999 -99.9 -99.99 -9.99
2019/01/13 07:36 EST    0.36   1.46   20   54   24  42.3 -99.9 1022.2 -9.9 -9.999 -99.9 -99.99 -9.99
2019/01/13 07:42 EST    0.38   1.47   20   51   23  42.3 -99.9 1022.2 -9.9 -9.999 -99.9 -99.99 -9.99
2019/01/13 07:48 EST    0.39   1.47   18   51   22  42.3 -99.9 1022.1 -9.9 -9.999 -99.9 -99.99 -9.99
2019/01/13 07:54 EST    0.41   1.58   21   58   24  42.3 -99.9 1021.7 -9.9 -9.999 -99.9 -99.99 -9.99
2019/01/13 08:00 EST    0.44   1.59   23   57   25  42.3 -99.9 1021.5 -9.9 -9.999 -99.9 -99.99 -9.99
2019/01/13 08:06 EST    0.46   1.68   22   60   27  42.3 -99.9 1021.6 -9.9 -9.999 -99.9 -99.99 -9.99
2019/01/13 08:12 EST    0.49   1.73   23   58   26  42.3 -99.9 1021.6 -9.9 -9.999 -99.9 -99.99 -9.99
2019/01/13 08:18 EST    0.51   1.76   22   56   25  42.3 -99.9 1021.5 -9.9 -9.999 -99.9 -99.99 -9.99
2019/01/13 08:24 EST    0.54   1.85   22   52   25  42.3 -99.9 1021.5 -9.9 -9.999 -99.9 -99.99 -9.99
2019/01/13 08:30 EST    0.57   1.98   22   56   26  42.3 -99.9 1021.4 -9.9 -9.999 -99.9 -99.99 -9.99
2019/01/13 08:36 EST    0.61   1.97   21   56   26  42.1 -99.9 1021.4 -9.9 -9.999 -99.9 -99.99 -9.99
2019/01/13 08:42 EST    0.64   2.03   19   53   24  42.3 -99.9 1021.6 -9.9 -9.999 -99.9 -99.99 -9.99
2019/01/13 08:48 EST    0.68   2.08   21   55   23  42.1 -99.9 1021.5 -9.9 -9.999 -99.9 -99.99 -9.99
2019/01/13 08:54 EST    0.72   2.06   21   58   26  42.3 -99.9 1021.5 -9.9 -9.999 -99.9 -99.99 -9.99
2019/01/13 09:00 EST    0.75   2.24   21   57   27  42.4 -99.9 1021.4 -9.9 -9.999 -99.9 -99.99 -9.99
2019/01/13 09:06 EST    0.79   2.26   22   55   27  42.4 -99.9 1021.4 -9.9 -9.999 -99.9 -99.99 -9.99
2019/01/13 09:12 EST    0.84   2.28   24   55   28  42.3 -99.9 1021.3 -9.9 -9.999 -99.9 -99.99 -9.99
2019/01/13 09:18 EST    0.88   2.32 -999 -999 -999 -99.9 -99.9 -999.9 -9.9 -9.999 -99.9 -99.99 -9.99
2019/01/13 09:24 EST    0.92   2.37   24   52   26  42.3 -99.9 1021.5 -9.9 -9.999 -99.9 -99.99 -9.99
2019/01/13 09:30 EST    0.96   2.44   22   50   25  42.3 -99.9 1021.5 -9.9 -9.999 -99.9 -99.99 -9.99
2019/01/13 09:36 EST    1.01   2.62   22   51   25  42.3 -99.9 1021.5 -9.9 -9.999 -99.9 -99.99 -9.99
2019/01/13 09:42 EST    1.05   2.70   25   49   27  42.1 -99.9 1021.4 -9.9 -9.999 -99.9 -99.99 -9.99
2019/01/13 09:48 EST    1.10   2.65   24   52   28  42.3 -99.9 1021.3 -9.9 -9.999 -99.9 -99.99 -9.99
2019/01/13 09:54 EST    1.14   2.70   25   53   29  42.3 -99.9 1021.1 -9.9 -9.999 -99.9 -99.99 -9.99
2019/01/13 10:00 EST    1.19   2.71   24   51   30  42.1 -99.9 1021.1 -9.9 -9.999 -99.9 -99.99 -9.99
2019/01/13 10:06 EST    1.24   2.95   23   50   28  42.3 -99.9 1021.1 -9.9 -9.999 -99.9 -99.99 -9.99
2019/01/13 10:12 EST    1.28   2.90   26   46   29  41.9 -99.9 1020.9 -9.9 -9.999 -99.9 -99.99 -9.99
2019/01/13 10:18 EST    1.33   3.13   26   40   31  41.9 -99.9 1021.1 -9.9 -9.999 -99.9 -99.99 -9.99
2019/01/13 10:24 EST    1.37   3.19   24   44   31  42.1 -99.9 1021.3 -9.9 -9.999 -99.9 -99.99 -9.99
2019/01/13 10:30 EST    1.42   3.15   25   42   30  42.1 -99.9 1021.3 -9.9 -9.999 -99.9 -99.99 -9.99
2019/01/13 10:36 EST    1.47   3.25   25   43   30  42.1 -99.9 1021.2 -9.9 -9.999 -99.9 -99.99 -9.99
2019/01/13 10:42 EST    1.51   3.19   25   48   29  42.1 -99.9 1021.0 -9.9 -9.999 -99.9 -99.99 -9.99
2019/01/13 10:48 EST    1.56   3.36   25   54   30  42.1 -99.9 1020.8 -9.9 -9.999 -99.9 -99.99 -9.99
2019/01/13 10:54 EST    1.60   3.32   27   55   31  42.1 -99.9 1020.6 -9.9 -9.999 -99.9 -99.99 -9.99
2019/01/13 11:00 EST    1.64   3.40   25   51   29  42.1 -99.9 1020.6 -9.9 -9.999 -99.9 -99.99 -9.99
2019/01/13 11:06 EST    1.69   3.44   25   48   30  42.3 -99.9 1020.6 -9.9 -9.999 -99.9 -99.99 -9.99
2019/01/13 11:12 EST    1.73   3.54   26   55   31  42.1 -99.9 1020.2 -9.9 -9.999 -99.9 -99.99 -9.99
2019/01/13 11:18 EST    1.77   3.52   28   53   32  42.1 -99.9 1020.0 -9.9 -9.999 -99.9 -99.99 -9.99
2019/01/13 11:24 EST    1.81   3.62   26   52   30  42.1 -99.9 1019.6 -9.9 -9.999 -99.9 -99.99 -9.99
2019/01/13 11:30 EST    1.85   3.62   27   53   31  41.9 -99.9 1019.2 -9.9 -9.999 -99.9 -99.99 -9.99
2019/01/13 11:36 EST    1.88   3.78   26   53   33  42.1 -99.9 1019.1 -9.9 -9.999 -99.9 -99.99 -9.99
2019/01/13 11:42 EST    1.92   3.58   26   54   32  42.1 -99.9 1018.8 -9.9 -9.999 -99.9 -99.99 -9.99
2019/01/13 11:48 EST    1.95   3.84   26   60   31  41.9 -99.9 1018.7 -9.9 -9.999 -99.9 -99.99 -9.99
2019/01/13 11:54 EST    1.98   3.76   27   58   31  42.1 -99.9 1018.2 -9.9 -9.999 -99.9 -99.99 -9.99
2019/01/13 12:00 EST    2.01   3.74   27   59   32  42.1 -99.9 1018.0 -9.9 -9.999 -99.9 -99.99 -9.99
2019/01/13 12:06 EST    2.03   3.82   30   63   35  42.1 -99.9 1017.7 -9.9 -9.999 -99.9 -99.99 -9.99
2019/01/13 12:12 EST    2.05   3.91   28   63   34  42.1 -99.9 1017.5 -9.9 -9.999 -99.9 -99.99 -9.99
2019/01/13 12:18 EST    2.07   3.91   26   63   33  42.1 -99.9 1017.4 -9.9 -9.999 -99.9 -99.99 -9.99
2019/01/13 12:24 EST    2.09   3.96   27   64   31  42.3 -99.9 1017.0 -9.9 -9.999 -99.9 -99.99 -9.99
2019/01/13 12:30 EST    2.11   3.98   25   61   33  42.4 -99.9 1017.0 -9.9 -9.999 -99.9 -99.99 -9.99
2019/01/13 12:36 EST    2.12   3.96   25   60   31  42.4 -99.9 1016.9 -9.9 -9.999 -99.9 -99.99 -9.99
2019/01/13 12:42 EST    2.13   4.03   26   62   32  42.6 -99.9 1016.8 -9.9 -9.999 -99.9 -99.99 -9.99
2019/01/13 12:48 EST    2.13   4.10   26   63   33  42.6 -99.9 1016.9 -9.9 -9.999 -99.9 -99.99 -9.99
2019/01/13 12:54 EST    2.14   3.98   27   63   31  42.8 -99.9 1016.9 -9.9 -9.999 -99.9 -99.99 -9.99
2019/01/13 13:00 EST    2.14   3.89   25   65   30  43.0 -99.9 1016.9 -9.9 -9.999 -99.9 -99.99 -9.99
2019/01/13 13:06 EST    2.13   4.00   25   63   30  43.0 -99.9 1016.7 -9.9 -9.999 -99.9 -99.99 -9.99
2019/01/13 13:12 EST    2.13   4.01   25   65   32  43.0 -99.9 1016.6 -9.9 -9.999 -99.9 -99.99 -9.99
2019/01/13 13:18 EST    2.12   4.02   26   65   32  43.2 -99.9 1016.4 -9.9 -9.999 -99.9 -99.99 -9.99
2019/01/13 13:24 EST    2.11   3.96   23   62   29  43.2 -99.9 1016.3 -9.9 -9.999 -99.9 -99.99 -9.99
2019/01/13 13:30 EST    2.09   4.03   25   64   30  43.2 -99.9 1016.2 -9.9 -9.999 -99.9 -99.99 -9.99
2019/01/13 13:36 EST    2.08   4.03   26   63   31  43.3 -99.9 1016.1 -9.9 -9.999 -99.9 -99.99 -9.99
2019/01/13 13:42 EST    2.06   3.92   25   61   31  43.3 -99.9 1016.2 -9.9 -9.999 -99.9 -99.99 -9.99
2019/01/13 13:48 EST    2.04   4.12   25   58   31  43.3 -99.9 1016.2 -9.9 -9.999 -99.9 -99.99 -9.99
2019/01/13 13:54 EST    2.02   3.98   26   59   31  43.3 -99.9 1016.1 -9.9 -9.999 -99.9 -99.99 -9.99
2019/01/13 14:00 EST    1.99   3.96   25   58   30  43.3 -99.9 1015.9 -9.9 -9.999 -99.9 -99.99 -9.99
2019/01/13 14:06 EST    1.96   3.88   26   58   33  43.5 -99.9 1015.8 -9.9 -9.999 -99.9 -99.99 -9.99
2019/01/13 14:12 EST    1.93   3.87   24   61   29  43.3 -99.9 1015.8 -9.9 -9.999 -99.9 -99.99 -9.99
2019/01/13 14:18 EST    1.90   3.91   25   63   31  43.5 -99.9 1015.8 -9.9 -9.999 -99.9 -99.99 -9.99
2019/01/13 14:24 EST    1.87   4.01   25   56   32  43.3 -99.9 1015.8 -9.9 -9.999 -99.9 -99.99 -9.99
2019/01/13 14:30 EST    1.84   3.85   22   59   28  43.5 -99.9 1016.0 -9.9 -9.999 -99.9 -99.99 -9.99
2019/01/13 14:36 EST    1.81   3.79   21   54   26  43.3 -99.9 1016.1 -9.9 -9.999 -99.9 -99.99 -9.99
2019/01/13 14:42 EST    1.77   3.98   21   51   27  43.3 -99.9 1016.1 -9.9 -9.999 -99.9 -99.99 -9.99
2019/01/13 14:48 EST    1.73   3.73   21   51   26  43.3 -99.9 1016.2 -9.9 -9.999 -99.9 -99.99 -9.99
2019/01/13 14:54 EST    1.70   3.82   22   52   26  43.2 -99.9 1016.1 -9.9 -9.999 -99.9 -99.99 -9.99
2019/01/13 15:00 EST    1.66   3.89   20   51   25  43.2 -99.9 1016.2 -9.9 -9.999 -99.9 -99.99 -9.99
2019/01/13 15:06 EST    1.62   3.98   20   48   24  43.2 -99.9 1016.2 -9.9 -9.999 -99.9 -99.99 -9.99
2019/01/13 15:12 EST    1.58   3.80   22   47   24  43.2 -99.9 1016.3 -9.9 -9.999 -99.9 -99.99 -9.99
2019/01/13 15:18 EST    1.54   3.68   19   40   23  43.2 -99.9 1016.6 -9.9 -9.999 -99.9 -99.99 -9.99
2019/01/13 15:24 EST    1.50   3.84   18   39   21  43.2 -99.9 1016.7 -9.9 -9.999 -99.9 -99.99 -9.99
2019/01/13 15:30 EST    1.46   3.53   18   38   22  43.2 -99.9 1016.8 -9.9 -9.999 -99.9 -99.99 -9.99
2019/01/13 15:36 EST    1.41   3.67   18   36   20  43.2 -99.9 1016.8 -9.9 -9.999 -99.9 -99.99 -9.99
2019/01/13 15:42 EST    1.37   3.50   17   40   22  43.2 -99.9 1016.8 -9.9 -9.999 -99.9 -99.99 -9.99
2019/01/13 15:48 EST    1.33   3.47   18   40   23  43.0 -99.9 1016.7 -9.9 -9.999 -99.9 -99.99 -9.99
2019/01/13 15:54 EST    1.28   3.48   17   40   20  43.2 -99.9 1016.7 -9.9 -9.999 -99.9 -99.99 -9.99
2019/01/13 16:00 EST    1.24   3.43   18   38   21  43.0 -99.9 1016.6 -9.9 -9.999 -99.9 -99.99 -9.99
2019/01/13 16:06 EST    1.19   3.44   18   42   21  43.0 -99.9 1016.5 -9.9 -9.999 -99.9 -99.99 -9.99
2019/01/13 16:12 EST    1.14   3.25   17   42   21  43.0 -99.9 1016.5 -9.9 -9.999 -99.9 -99.99 -9.99
2019/01/13 16:18 EST    1.10   3.32   19   47   22  43.0 -99.9 1016.4 -9.9 -9.999 -99.9 -99.99 -9.99
2019/01/13 16:24 EST    1.05   3.20   18   40   22  42.8 -99.9 1016.3 -9.9 -9.999 -99.9 -99.99 -9.99
2019/01/13 16:30 EST    1.00   3.10   18   41   22  42.8 -99.9 1016.4 -9.9 -9.999 -99.9 -99.99 -9.99
2019/01/13 16:36 EST    0.95   3.05   18   42   20  42.8 -99.9 1016.3 -9.9 -9.999 -99.9 -99.99 -9.99
2019/01/13 16:42 EST    0.91   3.11   18   39   21  43.0 -99.9 1016.3 -9.9 -9.999 -99.9 -99.99 -9.99
2019/01/13 16:48 EST    0.86   3.06   18   37   22  43.0 -99.9 1016.3 -9.9 -9.999 -99.9 -99.99 -9.99
2019/01/13 16:54 EST    0.81   3.00   19   38   24  42.8 -99.9 1016.4 -9.9 -9.999 -99.9 -99.99 -9.99
2019/01/13 17:00 EST    0.76   2.99   20   36   23  42.8 -99.9 1016.4 -9.9 -9.999 -99.9 -99.99 -9.99
2019/01/13 17:06 EST    0.72   2.86   19   37   23  42.8 -99.9 1016.5 -9.9 -9.999 -99.9 -99.99 -9.99
2019/01/13 17:12 EST    0.67   2.82   21   32   25  42.8 -99.9 1016.5 -9.9 -9.999 -99.9 -99.99 -9.99
2019/01/13 17:18 EST    0.63   2.85   21   30   24  42.6 -99.9 1016.6 -9.9 -9.999 -99.9 -99.99 -9.99
2019/01/13 17:24 EST    0.58   2.81   21   28   24  42.6 -99.9 1016.8 -9.9 -9.999 -99.9 -99.99 -9.99
2019/01/13 17:30 EST    0.54   2.85   20   29   23  42.6 -99.9 1016.8 -9.9 -9.999 -99.9 -99.99 -9.99
2019/01/13 17:36 EST    0.50   2.78   20   26   24  42.6 -99.9 1016.9 -9.9 -9.999 -99.9 -99.99 -9.99
2019/01/13 17:42 EST    0.46   2.73   20   21   24  42.4 -99.9 1017.0 -9.9 -9.999 -99.9 -99.99 -9.99
2019/01/13 17:48 EST    0.42   2.76   21   17   24  42.4 -99.9 1017.1 -9.9 -9.999 -99.9 -99.99 -9.99
2019/01/13 17:54 EST    0.39   2.70   20   20   24  42.4 -99.9 1017.1 -9.9 -9.999 -99.9 -99.99 -9.99
2019/01/13 18:00 EST    0.36   2.75   20   15   23  42.3 -99.9 1017.2 -9.9 -9.999 -99.9 -99.99 -9.99
2019/01/13 18:06 EST    0.32   2.54   20   17   24  42.3 -99.9 1017.3 -9.9 -9.999 -99.9 -99.99 -9.99
2019/01/13 18:12 EST    0.30   2.53   21   18   25  42.1 -99.9 1017.3 -9.9 -9.999 -99.9 -99.99 -9.99
2019/01/13 18:18 EST    0.27   2.48   21   23   24  42.1 -99.9 1017.3 -9.9 -9.999 -99.9 -99.99 -9.99
2019/01/13 18:24 EST    0.24   2.41   21   21   24  42.1 -99.9 1017.2 -9.9 -9.999 -99.9 -99.99 -9.99
2019/01/13 18:30 EST    0.22   2.29   22   21   27  41.9 -99.9 1017.2 -9.9 -9.999 -99.9 -99.99 -9.99
2019/01/13 18:36 EST    0.20   2.54   22   20   25  41.9 -99.9 1017.2 -9.9 -9.999 -99.9 -99.99 -9.99
2019/01/13 18:42 EST    0.19   2.27   22   23   26  41.7 -99.9 1017.2 -9.9 -9.999 -99.9 -99.99 -9.99
2019/01/13 18:48 EST    0.18   2.39   22   19   25  41.7 -99.9 1017.3 -9.9 -9.999 -99.9 -99.99 -9.99
2019/01/13 18:54 EST    0.16   2.35   21   18   25  41.5 -99.9 1017.4 -9.9 -9.999 -99.9 -99.99 -9.99
2019/01/13 19:00 EST    0.16   2.37   22   13   24  41.4 -99.9 1017.5 -9.9 -9.999 -99.9 -99.99 -9.99
2019/01/13 19:06 EST    0.15   2.23   21   13   26  41.5 -99.9 1017.6 -9.9 -9.999 -99.9 -99.99 -9.99
2019/01/13 19:12 EST    0.15   2.22   23    7   27  41.4 -99.9 1017.6 -9.9 -9.999 -99.9 -99.99 -9.99
2019/01/13 19:18 EST    0.15   2.33   24    6   27  41.0 -99.9 1017.6 -9.9 -9.999 -99.9 -99.99 -9.99
2019/01/13 19:24 EST    0.15   2.20   25    6   28  40.8 -99.9 1017.7 -9.9 -9.999 -99.9 -99.99 -9.99
2019/01/13 19:30 EST    0.16   2.32   24    6   28  40.8 -99.9 1017.7 -9.9 -9.999 -99.9 -99.99 -9.99
2019/01/13 19:36 EST    0.17   2.43   27   12   31  40.6 -99.9 1017.8 -9.9 -9.999 -99.9 -99.99 -9.99
2019/01/13 19:42 EST    0.18   2.27   28    8   31  40.5 -99.9 1017.7 -9.9 -9.999 -99.9 -99.99 -9.99
2019/01/13 19:48 EST    0.20   2.32   26    6   31  40.5 -99.9 1017.8 -9.9 -9.999 -99.9 -99.99 -9.99
2019/01/13 19:54 EST    0.21   2.44   30    3   32  39.9 -99.9 1017.8 -9.9 -9.999 -99.9 -99.99 -9.99
2019/01/13 20:00 EST    0.23   2.33   28    8   32  40.1 -99.9 1017.9 -9.9 -9.999 -99.9 -99.99 -9.99
2019/01/13 20:06 EST    0.26   2.55   28    7   33  39.9 -99.9 1017.8 -9.9 -9.999 -99.9 -99.99 -9.99
2019/01/13 20:12 EST    0.28   2.48   28    5   33  39.7 -99.9 1017.8 -9.9 -9.999 -99.9 -99.99 -9.99
2019/01/13 20:18 EST    0.31   2.47   26    5   31  39.7 -99.9 1017.9 -9.9 -9.999 -99.9 -99.99 -9.99
2019/01/13 20:24 EST    0.33   2.40   27    6   32  39.6 -99.9 1017.9 -9.9 -9.999 -99.9 -99.99 -9.99
2019/01/13 20:30 EST    0.37   2.49   29    2   33  39.0 -99.9 1017.8 -9.9 -9.999 -99.9 -99.99 -9.99
2019/01/13 20:36 EST    0.40   2.64   27    4   33  39.4 -99.9 1017.9 -9.9 -9.999 -99.9 -99.99 -9.99
2019/01/13 20:42 EST    0.43   2.59   27    3   33  39.0 -99.9 1017.8 -9.9 -9.999 -99.9 -99.99 -9.99
2019/01/13 20:48 EST    0.47   2.74   29    6   32  38.7 -99.9 1017.8 -9.9 -9.999 -99.9 -99.99 -9.99
2019/01/13 20:54 EST    0.51   2.83   29    5   34  38.5 -99.9 1017.8 -9.9 -9.999 -99.9 -99.99 -9.99
2019/01/13 21:00 EST    0.55   2.70   30    7   34  38.5 -99.9 1017.9 -9.9 -9.999 -99.9 -99.99 -9.99
2019/01/13 21:06 EST    0.59   2.68   28    3   34  38.7 -99.9 1017.9 -9.9 -9.999 -99.9 -99.99 -9.99
2019/01/13 21:12 EST    0.63   2.65   28    6   32  38.5 -99.9 1018.1 -9.9 -9.999 -99.9 -99.99 -9.99
2019/01/13 21:18 EST    0.68   3.03   30    5   34  38.3 -99.9 1018.1 -9.9 -9.999 -99.9 -99.99 -9.99
2019/01/13 21:24 EST    0.72   2.91   29    6   33  38.3 -99.9 1018.1 -9.9 -9.999 -99.9 -99.99 -9.99
2019/01/13 21:30 EST    0.77   2.84   31    6   36  37.8 -99.9 1018.1 -9.9 -9.999 -99.9 -99.99 -9.99
2019/01/13 21:36 EST    0.82   2.77   30   12   35  37.8 -99.9 1018.3 -9.9 -9.999 -99.9 -99.99 -9.99
2019/01/13 21:42 EST    0.87   3.01   28   11   33  37.4 -99.9 1018.3 -9.9 -9.999 -99.9 -99.99 -9.99
2019/01/13 21:48 EST    0.92   3.22   27    6   33  37.4 -99.9 1018.3 -9.9 -9.999 -99.9 -99.99 -9.99
2019/01/13 21:54 EST    0.97   3.05   30    6   37  36.9 -99.9 1018.4 -9.9 -9.999 -99.9 -99.99 -9.99
2019/01/13 22:00 EST    1.02   3.15   31    4   35  36.7 -99.9 1018.4 -9.9 -9.999 -99.9 -99.99 -9.99
2019/01/13 22:06 EST    1.07   3.12   30    9   34  36.5 -99.9 1018.6 -9.9 -9.999 -99.9 -99.99 -9.99
2019/01/13 22:12 EST    1.12   3.30   29    5   33  36.5 -99.9 1018.4 -9.9 -9.999 -99.9 -99.99 -9.99
2019/01/13 22:18 EST    1.17   3.46   28    7   32  36.5 -99.9 1018.6 -9.9 -9.999 -99.9 -99.99 -9.99
2019/01/13 22:24 EST    1.22   3.35   28    9   34  36.9 -99.9 1018.7 -9.9 -9.999 -99.9 -99.99 -9.99
2019/01/13 22:30 EST    1.27   3.28   28    6   34  36.7 -99.9 1018.7 -9.9 -9.999 -99.9 -99.99 -9.99
2019/01/13 22:36 EST    1.32   3.48   30    7   34  36.3 -99.9 1018.6 -9.9 -9.999 -99.9 -99.99 -9.99
2019/01/13 22:42 EST    1.38   3.64   28    6   34  36.5 -99.9 1018.5 -9.9 -9.999 -99.9 -99.99 -9.99
2019/01/13 22:48 EST    1.43   3.68   30    4   35  36.1 -99.9 1018.6 -9.9 -9.999 -99.9 -99.99 -9.99
2019/01/13 22:54 EST    1.48   3.48   29    5   34  36.3 -99.9 1018.6 -9.9 -9.999 -99.9 -99.99 -9.99
2019/01/13 23:00 EST    1.53   4.06   28   11   33  36.1 -99.9 1018.6 -9.9 -9.999 -99.9 -99.99 -9.99
2019/01/13 23:06 EST    1.58   3.76   29   11   33  36.3 -99.9 1018.7 -9.9 -9.999 -99.9 -99.99 -9.99
2019/01/13 23:12 EST    1.63   3.74   29    5   33  36.3 -99.9 1018.7 -9.9 -9.999 -99.9 -99.99 -9.99
2019/01/13 23:18 EST    1.67   3.80   29    5   34  36.0 -99.9 1018.6 -9.9 -9.999 -99.9 -99.99 -9.99
2019/01/13 23:24 EST    1.72   3.97   27    3   34  36.1 -99.9 1018.5 -9.9 -9.999 -99.9 -99.99 -9.99
2019/01/13 23:30 EST    1.77   3.84   30    5   34  35.6 -99.9 1018.5 -9.9 -9.999 -99.9 -99.99 -9.99
2019/01/13 23:36 EST    1.81   3.99   30    7   34  35.8 -99.9 1018.4 -9.9 -9.999 -99.9 -99.99 -9.99
2019/01/13 23:42 EST    1.85   3.98   29    6   32  36.0 -99.9 1018.4 -9.9 -9.999 -99.9 -99.99 -9.99
2019/01/13 23:48 EST    1.90   3.87   28    5   33  35.8 -99.9 1018.3 -9.9 -9.999 -99.9 -99.99 -9.99
2019/01/13 23:54 EST    1.94   4.17   29    4   34  35.8 -99.9 1018.4 -9.9 -9.999 -99.9 -99.99 -9.99
2019/01/14 00:00 EST    1.97   3.83   29    8   33  35.8 -99.9 1018.2 -9.9 -9.999 -99.9 -99.99 -9.99
2019/01/14 00:06 EST    2.01   4.22   28    4   34  35.6 -99.9 1018.2 -9.9 -9.999 -99.9 -99.99 -9.99
2019/01/14 00:12 EST    2.04   4.16   26    4   31  36.0 -99.9 1018.2 -9.9 -9.999 -99.9 -99.99 -9.99
2019/01/14 00:18 EST    2.08   4.25   29    2   31  35.4 -99.9 1018.1 -9.9 -9.999 -99.9 -99.99 -9.99
2019/01/14 00:24 EST    2.11   4.16   28    9   33  35.6 -99.9 1018.2 -9.9 -9.999 -99.9 -99.99 -9.99
2019/01/14 00:30 EST    2.13   4.47   27    9   32  35.4 -99.9 1018.1 -9.9 -9.999 -99.9 -99.99 -9.99
2019/01/14 00:36 EST    2.16   4.40   29    5   32  35.4 -99.9 1018.0 -9.9 -9.999 -99.9 -99.99 -9.99
2019/01/14 00:42 EST    2.18   4.28   28    9   32  35.4 -99.9 1018.1 -9.9 -9.999 -99.9 -99.99 -9.99
2019/01/14 00:48 EST    2.20   4.24   28    7   33  35.4 -99.9 1018.1 -9.9 -9.999 -99.9 -99.99 -9.99
2019/01/14 00:54 EST    2.21   4.34   28    8   32  35.2 -99.9 1018.2 -9.9 -9.999 -99.9 -99.99 -9.99
2019/01/14 01:00 EST    2.23   4.61   28   11   31  35.1 -99.9 1018.2 -9.9 -9.999 -99.9 -99.99 -9.99
2019/01/14 01:06 EST    2.24   4.41   27    6   32  35.2 -99.9 1018.2 -9.9 -9.999 -99.9 -99.99 -9.99
2019/01/14 01:12 EST    2.24   4.33   28    8   33  35.1 -99.9 1018.3 -9.9 -9.999 -99.9 -99.99 -9.99
2019/01/14 01:18 EST    2.25   4.21   29   10   34  35.1 -99.9 1018.3 -9.9 -9.999 -99.9 -99.99 -9.99
2019/01/14 01:24 EST    2.25   4.26   27    7   31  35.2 -99.9 1018.4 -9.9 -9.999 -99.9 -99.99 -9.99
2019/01/14 01:30 EST    2.25   4.27   30    6   32  35.1 -99.9 1018.4 -9.9 -9.999 -99.9 -99.99 -9.99
2019/01/14 01:36 EST    2.24   4.33   25    7   31  35.4 -99.9 1018.7 -9.9 -9.999 -99.9 -99.99 -9.99
2019/01/14 01:42 EST    2.24   4.34   29    5   32  34.9 -99.9 1018.6 -9.9 -9.999 -99.9 -99.99 -9.99
2019/01/14 01:48 EST    2.23   4.47   26    9   32  35.2 -99.9 1018.7 -9.9 -9.999 -99.9 -99.99 -9.99
2019/01/14 01:54 EST    2.21   4.30   28    7   32  34.9 -99.9 1018.8 -9.9 -9.999 -99.9 -99.99 -9.99
2019/01/14 02:00 EST    2.20   4.37   28    4   32  35.1 -99.9 1019.0 -9.9 -9.999 -99.9 -99.99 -9.99
2019/01/14 02:06 EST    2.18   4.42   25    5   32  35.1 -99.9 1019.0 -9.9 -9.999 -99.9 -99.99 -9.99
2019/01/14 02:12 EST    2.17   4.21   27    4   31  35.1 -99.9 1019.1 -9.9 -9.999 -99.9 -99.99 -9.99
2019/01/14 02:18 EST    2.15   4.43   27    6   31  35.1 -99.9 1019.2 -9.9 -9.999 -99.9 -99.99 -9.99
2019/01/14 02:24 EST    2.12   4.29   26    4   31  35.1 -99.9 1019.1 -9.9 -9.999 -99.9 -99.99 -9.99
2019/01/14 02:30 EST    2.10   4.19   26    5   33  35.1 -99.9 1019.2 -9.9 -9.999 -99.9 -99.99 -9.99
2019/01/14 02:36 EST    2.08   4.31   27    5   31  34.9 -99.9 1019.2 -9.9 -9.999 -99.9 -99.99 -9.99
2019/01/14 02:42 EST    2.05   4.16   26    2   32  35.1 -99.9 1019.3 -9.9 -9.999 -99.9 -99.99 -9.99
2019/01/14 02:48 EST    2.02   4.28   28    3   33  34.7 -99.9 1019.4 -9.9 -9.999 -99.9 -99.99 -9.99
2019/01/14 02:54 EST    2.00   4.20   28    5   33  34.7 -99.9 1019.4 -9.9 -9.999 -99.9 -99.99 -9.99
2019/01/14 03:00 EST    1.97   4.24   26    3   32  35.1 -99.9 1019.5 -9.9 -9.999 -99.9 -99.99 -9.99
2019/01/14 03:06 EST    1.94   4.11   26    2   32  34.9 -99.9 1019.5 -9.9 -9.999 -99.9 -99.99 -9.99
2019/01/14 03:12 EST    1.91   4.08   30    4   34  34.5 -99.9 1019.5 -9.9 -9.999 -99.9 -99.99 -9.99
2019/01/14 03:18 EST    1.87   4.03   27    5   32  34.5 -99.9 1019.4 -9.9 -9.999 -99.9 -99.99 -9.99
2019/01/14 03:24 EST    1.84   4.13   29    6   33  34.5 -99.9 1019.3 -9.9 -9.999 -99.9 -99.99 -9.99
2019/01/14 03:30 EST    1.81   4.05   25    4   32  34.9 -99.9 1019.3 -9.9 -9.999 -99.9 -99.99 -9.99
2019/01/14 03:36 EST    1.77   4.01   27    5   31  34.9 -99.9 1019.3 -9.9 -9.999 -99.9 -99.99 -9.99
2019/01/14 03:42 EST    1.74   4.05   29    6   32  34.3 -99.9 1019.1 -9.9 -9.999 -99.9 -99.99 -9.99
2019/01/14 03:48 EST    1.70   4.21   29    4   33  34.3 -99.9 1019.2 -9.9 -9.999 -99.9 -99.99 -9.99
2019/01/14 03:54 EST    1.67   4.10   28    5   32  34.2 -99.9 1019.2 -9.9 -9.999 -99.9 -99.99 -9.99
2019/01/14 04:00 EST    1.63   3.97   26    3   31  34.7 -99.9 1019.3 -9.9 -9.999 -99.9 -99.99 -9.99
2019/01/14 04:06 EST    1.59   3.97   27    2   32  34.7 -99.9 1019.2 -9.9 -9.999 -99.9 -99.99 -9.99
2019/01/14 04:12 EST    1.55   3.89   28  357   31  34.5 -99.9 1019.2 -9.9 -9.999 -99.9 -99.99 -9.99
2019/01/14 04:18 EST    1.51   3.75   27    5   31  34.5 -99.9 1019.1 -9.9 -9.999 -99.9 -99.99 -9.99
2019/01/14 04:24 EST    1.47   4.04   27    6   32  34.3 -99.9 1019.1 -9.9 -9.999 -99.9 -99.99 -9.99
2019/01/14 04:30 EST    1.43   3.94   27    4   32  34.5 -99.9 1019.2 -9.9 -9.999 -99.9 -99.99 -9.99
2019/01/14 04:36 EST    1.39   3.73   29    3   31  34.3 -99.9 1019.2 -9.9 -9.999 -99.9 -99.99 -9.99
2019/01/14 04:42 EST    1.34   3.79   28    0   32  34.3 -99.9 1019.3 -9.9 -9.999 -99.9 -99.99 -9.99
2019/01/14 04:48 EST    1.30   3.67   27    3   31  34.9 -99.9 1019.3 -9.9 -9.999 -99.9 -99.99 -9.99
2019/01/14 04:54 EST    1.25   3.66   27    2   32  34.7 -99.9 1019.3 -9.9 -9.999 -99.9 -99.99 -9.99
2019/01/14 05:00 EST    1.21   3.59   27    2   30  34.7 -99.9 1019.4 -9.9 -9.999 -99.9 -99.99 -9.99
2019/01/14 05:06 EST    1.16   3.54   26    3   31  34.7 -99.9 1019.5 -9.9 -9.999 -99.9 -99.99 -9.99
2019/01/14 05:12 EST    1.12   3.38   27    1   32  34.5 -99.9 1019.5 -9.9 -9.999 -99.9 -99.99 -9.99
2019/01/14 05:18 EST    1.07   3.35   26    3   31  34.7 -99.9 1019.6 -9.9 -9.999 -99.9 -99.99 -9.99
2019/01/14 05:24 EST    1.02   3.25   26    3   31  34.5 -99.9 1019.8 -9.9 -9.999 -99.9 -99.99 -9.99
2019/01/14 05:30 EST    0.98   3.10   24    4   31  35.2 -99.9 1019.9 -9.9 -9.999 -99.9 -99.99 -9.99
2019/01/14 05:36 EST    0.93   3.20   26  359   31  34.9 -99.9 1020.0 -9.9 -9.999 -99.9 -99.99 -9.99
2019/01/14 05:42 EST    0.89   3.11   28    3   30  34.5 -99.9 1020.0 -9.9 -9.999 -99.9 -99.99 -9.99
2019/01/14 05:48 EST    0.84   3.21   28    4   31  34.5 -99.9 1020.1 -9.9 -9.999 -99.9 -99.99 -9.99
2019/01/14 05:54 EST    0.80   3.08   27    5   31  34.7 -99.9 1020.1 -9.9 -9.999 -99.9 -99.99 -9.99
2019/01/14 06:00 EST    0.76   2.92   27    6   32  34.7 -99.9 1020.2 -9.9 -9.999 -99.9 -99.99 -9.99
2019/01/14 06:06 EST    0.72   2.94   24    4   30  35.6 -99.9 1020.4 -9.9 -9.999 -99.9 -99.99 -9.99
2019/01/14 06:12 EST    0.68   2.78   28  354   32  35.1 -99.9 1020.5 -9.9 -9.999 -99.9 -99.99 -9.99
2019/01/14 06:18 EST    0.64   2.78   23    2   31  35.2 -99.9 1020.6 -9.9 -9.999 -99.9 -99.99 -9.99
2019/01/14 06:24 EST    0.60   2.72   25    6   29  35.1 -99.9 1020.6 -9.9 -9.999 -99.9 -99.99 -9.99
2019/01/14 06:30 EST    0.57   2.60   26  359   31  34.9 -99.9 1020.6 -9.9 -9.999 -99.9 -99.99 -9.99
2019/01/14 06:36 EST    0.53   2.57   26  356   29  35.1 -99.9 1020.6 -9.9 -9.999 -99.9 -99.99 -9.99
2019/01/14 06:42 EST    0.50   2.51   26    2   31  34.9 -99.9 1020.7 -9.9 -9.999 -99.9 -99.99 -9.99
2019/01/14 06:48 EST    0.47   2.47   27  359   30  34.9 -99.9 1020.7 -9.9 -9.999 -99.9 -99.99 -9.99
2019/01/14 06:54 EST    0.45   2.37   24  359   30  35.1 -99.9 1020.6 -9.9 -9.999 -99.9 -99.99 -9.99
2019/01/14 07:00 EST    0.42   2.39   24    5   31  35.1 -99.9 1020.7 -9.9 -9.999 -99.9 -99.99 -9.99
2019/01/14 07:06 EST    0.40   2.39   24    7   28  35.2 -99.9 1020.7 -9.9 -9.999 -99.9 -99.99 -9.99
2019/01/14 07:12 EST    0.38   2.28   24    4   29  35.4 -99.9 1020.8 -9.9 -9.999 -99.9 -99.99 -9.99
2019/01/14 07:18 EST    0.37   2.27   24    7   29  35.2 -99.9 1020.9 -9.9 -9.999 -99.9 -99.99 -9.99
2019/01/14 07:24 EST    0.35   2.14   25    4   29  34.9 -99.9 1020.9 -9.9 -9.999 -99.9 -99.99 -9.99
2019/01/14 07:30 EST    0.34   2.20   23    5   27  35.2 -99.9 1020.9 -9.9 -9.999 -99.9 -99.99 -9.99
2019/01/14 07:36 EST    0.33   2.33   22    2   28  35.1 -99.9 1020.9 -9.9 -9.999 -99.9 -99.99 -9.99
2019/01/14 07:42 EST    0.32   2.25   22    6   26  35.1 -99.9 1021.0 -9.9 -9.999 -99.9 -99.99 -9.99
2019/01/14 07:48 EST    0.32   2.22   23  354   26  35.1 -99.9 1021.0 -9.9 -9.999 -99.9 -99.99 -9.99
2019/01/14 07:54 EST    0.32   2.27   23   10   25  34.9 -99.9 1021.1 -9.9 -9.999 -99.9 -99.99 -9.99
2019/01/14 08:00 EST    0.32   2.21   23    3   28  34.9 -99.9 1021.1 -9.9 -9.999 -99.9 -99.99 -9.99
2019/01/14 08:06 EST    0.32   2.20   21    4   25  35.1 -99.9 1021.3 -9.9 -9.999 -99.9 -99.99 -9.99
2019/01/14 08:12 EST    0.33   2.25   21    4   25  35.1 -99.9 1021.4 -9.9 -9.999 -99.9 -99.99 -9.99
2019/01/14 08:18 EST    0.34   2.27   21    5   24  35.1 -99.9 1021.4 -9.9 -9.999 -99.9 -99.99 -9.99
2019/01/14 08:24 EST    0.35   2.23   22    7   25  34.9 -99.9 1021.5 -9.9 -9.999 -99.9 -99.99 -9.99
2019/01/14 08:30 EST    0.36   2.22   22    4   26  34.9 -99.9 1021.6 -9.9 -9.999 -99.9 -99.99 -9.99
2019/01/14 08:36 EST    0.37   2.44   22    7   25  35.1 -99.9 1021.7 -9.9 -9.999 -99.9 -99.99 -9.99
2019/01/14 08:42 EST    0.39   2.39   22    4   26  34.9 -99.9 1021.7 -9.9 -9.999 -99.9 -99.99 -9.99
2019/01/14 08:48 EST    0.41   2.29   22  360   26  35.1 -99.9 1021.8 -9.9 -9.999 -99.9 -99.99 -9.99
2019/01/14 08:54 EST    0.43   2.26   21    3   24  35.1 -99.9 1021.9 -9.9 -9.999 -99.9 -99.99 -9.99
2019/01/14 09:00 EST    0.45   2.40   21    4   25  34.9 -99.9 1022.0 -9.9 -9.999 -99.9 -99.99 -9.99
2019/01/14 09:06 EST    0.48   2.47   21    6   25  34.9 -99.9 1022.0 -9.9 -9.999 -99.9 -99.99 -9.99
2019/01/14 09:12 EST    0.50   2.44   22    6   26  34.9 -99.9 1022.0 -9.9 -9.999 -99.9 -99.99 -9.99
2019/01/14 09:18 EST    0.53   2.56   22   10   25  34.7 -99.9 1022.1 -9.9 -9.999 -99.9 -99.99 -9.99
2019/01/14 09:24 EST    0.56   2.58   20   11   24  34.9 -99.9 1022.3 -9.9 -9.999 -99.9 -99.99 -9.99
2019/01/14 09:30 EST    0.59   2.48   20    6   23  34.9 -99.9 1022.4 -9.9 -9.999 -99.9 -99.99 -9.99
2019/01/14 09:36 EST    0.62   2.56   19   18   24  34.9 -99.9 1022.5 -9.9 -9.999 -99.9 -99.99 -9.99
2019/01/14 09:42 EST    0.66   2.68   20   14   24  34.7 -99.9 1022.6 -9.9 -9.999 -99.9 -99.99 -9.99
2019/01/14 09:48 EST    0.69   2.70   19    8   22  34.7 -99.9 1022.7 -9.9 -9.999 -99.9 -99.99 -9.99
2019/01/14 09:54 EST    0.73   2.57   21   12   23  34.5 -99.9 1022.7 -9.9 -9.999 -99.9 -99.99 -9.99
2019/01/14 10:00 EST    0.77   2.73   20   10   22  34.5 -99.9 1022.7 -9.9 -9.999 -99.9 -99.99 -9.99
2019/01/14 10:06 EST    0.81   2.68   19   15   24  34.5 -99.9 1022.8 -9.9 -9.999 -99.9 -99.99 -9.99
2019/01/14 10:12 EST    0.85   2.64   20    9   23  34.3 -99.9 1022.9 -9.9 -9.999 -99.9 -99.99 -9.99
2019/01/14 10:18 EST    0.89   2.80   19   12   22  34.5 -99.9 1022.9 -9.9 -9.999 -99.9 -99.99 -9.99
2019/01/14 10:24 EST    0.93   2.82   18   14   23  34.5 -99.9 1022.8 -9.9 -9.999 -99.9 -99.99 -9.99
2019/01/14 10:30 EST    0.97   2.90   19    8   22  34.3 -99.9 1022.9 -9.9 -9.999 -99.9 -99.99 -9.99
2019/01/14 10:36 EST    1.02   2.90   19    9   22  34.2 -99.9 1022.9 -9.9 -9.999 -99.9 -99.99 -9.99
2019/01/14 10:42 EST    1.06   2.94   19   11   22  34.3 -99.9 1022.8 -9.9 -9.999 -99.9 -99.99 -9.99
2019/01/14 10:48 EST    1.10   3.03   20   11   22  34.3 -99.9 1022.8 -9.9 -9.999 -99.9 -99.99 -9.99
2019/01/14 10:54 EST    1.15   3.10   18    6   23  34.5 -99.9 1022.8 -9.9 -9.999 -99.9 -99.99 -9.99
2019/01/14 11:00 EST    1.19   3.10   20    6   22  34.3 -99.9 1022.6 -9.9 -9.999 -99.9 -99.99 -9.99
2019/01/14 11:06 EST    1.24   3.10   18    8   25  34.2 -99.9 1022.7 -9.9 -9.999 -99.9 -99.99 -9.99
2019/01/14 11:12 EST    1.28   3.16   19    9   23  34.3 -99.9 1022.6 -9.9 -9.999 -99.9 -99.99 -9.99
2019/01/14 11:18 EST    1.33   3.14   19    6   23  34.2 -99.9 1022.5 -9.9 -9.999 -99.9 -99.99 -9.99
2019/01/14 11:24 EST    1.37   3.21   19    0   23  34.2 -99.9 1022.5 -9.9 -9.999 -99.9 -99.99 -9.99
2019/01/14 11:30 EST    1.42   3.25   19    7   23  34.3 -99.9 1022.4 -9.9 -9.999 -99.9 -99.99 -9.99
2019/01/14 11:36 EST    1.46   3.29   20    7   22  34.0 -99.9 1022.3 -9.9 -9.999 -99.9 -99.99 -9.99
2019/01/14 11:42 EST    1.50   3.31   18    8   24  34.2 -99.9 1022.1 -9.9 -9.999 -99.9 -99.99 -9.99
2019/01/14 11:48 EST    1.55   3.36   21    5   23  34.2 -99.9 1022.0 -9.9 -9.999 -99.9 -99.99 -9.99
2019/01/14 11:54 EST    1.59   3.42   19   10   22  34.2 -99.9 1022.0 -9.9 -9.999 -99.9 -99.99 -9.99
2019/01/14 12:00 EST    1.63   3.47   19    1   22  34.0 -99.9 1022.0 -9.9 -9.999 -99.9 -99.99 -9.99
2019/01/14 12:06 EST    1.67   3.53   18    5   22  34.0 -99.9 1021.9 -9.9 -9.999 -99.9 -99.99 -9.99
2019/01/14 12:12 EST    1.71   3.54   17    3   22  33.8 -99.9 1021.9 -9.9 -9.999 -99.9 -99.99 -9.99
2019/01/14 12:18 EST    1.74   3.49   18    7   22  33.8 -99.9 1021.7 -9.9 -9.999 -99.9 -99.99 -9.99
2019/01/14 12:24 EST    1.78   3.61   19    7   21  34.0 -99.9 1021.7 -9.9 -9.999 -99.9 -99.99 -9.99
2019/01/14 12:30 EST    1.81   3.61   18  360   22  34.3 -99.9 1021.6 -9.9 -9.999 -99.9 -99.99 -9.99
2019/01/14 12:36 EST    1.84   3.69   19    7   22  34.2 -99.9 1021.5 -9.9 -9.999 -99.9 -99.99 -9.99
2019/01/14 12:42 EST    1.87   3.74   18  358   22  34.2 -99.9 1021.4 -9.9 -9.999 -99.9 -99.99 -9.99
2019/01/14 12:48 EST    1.90   3.64   18    4   21  34.5 -99.9 1021.4 -9.9 -9.999 -99.9 -99.99 -9.99
2019/01/14 12:54 EST    1.92   3.64   19    5   22  34.3 -99.9 1021.4 -9.9 -9.999 -99.9 -99.99 -9.99
2019/01/14 13:00 EST    1.94   3.74   19  358   23  34.5 -99.9 1021.4 -9.9 -9.999 -99.9 -99.99 -9.99
2019/01/14 13:06 EST    1.96   3.80   18  360   22  34.7 -99.9 1021.4 -9.9 -9.999 -99.9 -99.99 -9.99
2019/01/14 13:12 EST    1.98   3.77   20  352   23  34.5 -99.9 1021.3 -9.9 -9.999 -99.9 -99.99 -9.99
2019/01/14 13:18 EST    1.99   3.73   19    3   23  34.5 -99.9 1021.3 -9.9 -9.999 -99.9 -99.99 -9.99
2019/01/14 13:24 EST    2.01   3.79   19    5   23  34.3 -99.9 1021.3 -9.9 -9.999 -99.9 -99.99 -9.99
2019/01/14 13:30 EST    2.01   3.73   21  358   24  34.3 -99.9 1021.3 -9.9 -9.999 -99.9 -99.99 -9.99
2019/01/14 13:36 EST    2.02   3.76   20  358   23  34.5 -99.9 1021.3 -9.9 -9.999 -99.9 -99.99 -9.99
2019/01/14 13:42 EST    2.02   3.78   19    2   22  34.5 -99.9 1021.3 -9.9 -9.999 -99.9 -99.99 -9.99
2019/01/14 13:48 EST    2.02   3.68   18    6   21  34.5 -99.9 1021.3 -9.9 -9.999 -99.9 -99.99 -9.99
2019/01/14 13:54 EST    2.02   3.69   18    2   22  34.5 -99.9 1021.2 -9.9 -9.999 -99.9 -99.99 -9.99
2019/01/14 14:00 EST    2.02   3.87   18  351   22  34.5 -99.9 1021.2 -9.9 -9.999 -99.9 -99.99 -9.99
2019/01/14 14:06 EST    2.01   3.87   18  360   23  34.9 -99.9 1021.3 -9.9 -9.999 -99.9 -99.99 -9.99
2019/01/14 14:12 EST    2.00   3.78   17  355   20  34.9 -99.9 1021.3 -9.9 -9.999 -99.9 -99.99 -9.99
2019/01/14 14:18 EST    1.99   3.71   19    6   21  34.3 -99.9 1021.3 -9.9 -9.999 -99.9 -99.99 -9.99
2019/01/14 14:24 EST    1.97   3.68   19    5   22  34.7 -99.9 1021.3 -9.9 -9.999 -99.9 -99.99 -9.99
2019/01/14 14:30 EST    1.96   3.61   17    4   20  35.1 -99.9 1021.3 -9.9 -9.999 -99.9 -99.99 -9.99
2019/01/14 14:36 EST    1.94   3.50   17    4   20  35.2 -99.9 1021.2 -9.9 -9.999 -99.9 -99.99 -9.99
2019/01/14 14:42 EST    1.92   3.61   19    7   21  34.9 -99.9 1021.2 -9.9 -9.999 -99.9 -99.99 -9.99
2019/01/14 14:48 EST    1.90   3.59   18    4   20  35.1 -99.9 1021.1 -9.9 -9.999 -99.9 -99.99 -9.99
2019/01/14 14:54 EST    1.87   3.53   18    4   21  35.1 -99.9 1021.2 -9.9 -9.999 -99.9 -99.99 -9.99
2019/01/14 15:00 EST    1.85   3.54   19    4   20  35.2 -99.9 1021.1 -9.9 -9.999 -99.9 -99.99 -9.99
2019/01/14 15:06 EST    1.82   3.48   18    4   20  35.2 -99.9 1021.0 -9.9 -9.999 -99.9 -99.99 -9.99
2019/01/14 15:12 EST    1.80   3.47   20    2   22  35.2 -99.9 1021.0 -9.9 -9.999 -99.9 -99.99 -9.99
2019/01/14 15:18 EST    1.77   3.45   17    5   20  35.4 -99.9 1021.1 -9.9 -9.999 -99.9 -99.99 -9.99
2019/01/14 15:24 EST    1.74   3.50   17    5   21  35.6 -99.9 1021.0 -9.9 -9.999 -99.9 -99.99 -9.99
2019/01/14 15:30 EST    1.71   3.35   18  356   21  35.2 -99.9 1021.0 -9.9 -9.999 -99.9 -99.99 -9.99
2019/01/14 15:36 EST    1.68   3.34   17  358   21  35.2 -99.9 1021.0 -9.9 -9.999 -99.9 -99.99 -9.99
2019/01/14 15:42 EST    1.64   3.26   18    1   20  35.2 -99.9 1021.0 -9.9 -9.999 -99.9 -99.99 -9.99
2019/01/14 15:48 EST    1.61   3.17   17  358   20  35.2 -99.9 1021.0 -9.9 -9.999 -99.9 -99.99 -9.99
2019/01/14 15:54 EST    1.58   3.25   15    1   20  35.6 -99.9 1021.0 -9.9 -9.999 -99.9 -99.99 -9.99
2019/01/14 16:00 EST    1.54   3.28   18  353   21  35.4 -99.9 1021.1 -9.9 -9.999 -99.9 -99.99 -9.99
2019/01/14 16:06 EST    1.51   3.19   16    4   19  35.8 -99.9 1021.0 -9.9 -9.999 -99.9 -99.99 -9.99
2019/01/14 16:12 EST    1.47   3.04   17    7   20  35.6 -99.9 1021.0 -9.9 -9.999 -99.9 -99.99 -9.99
2019/01/14 16:18 EST    1.43   3.05   16    3   20  35.6 -99.9 1021.0 -9.9 -9.999 -99.9 -99.99 -9.99
2019/01/14 16:24 EST    1.39   3.10   13    1   20  35.6 -99.9 1021.1 -9.9 -9.999 -99.9 -99.99 -9.99
2019/01/14 16:30 EST    1.35   3.00   14  355   17  35.4 -99.9 1021.2 -9.9 -9.999 -99.9 -99.99 -9.99
2019/01/14 16:36 EST    1.31   3.05   14    4   18  35.4 -99.9 1021.3 -9.9 -9.999 -99.9 -99.99 -9.99
2019/01/14 16:42 EST    1.27   3.01   15    6   18  35.4 -99.9 1021.2 -9.9 -9.999 -99.9 -99.99 -9.99
2019/01/14 16:48 EST    1.22   2.88   14  353   17  35.6 -99.9 1021.3 -9.9 -9.999 -99.9 -99.99 -9.99
2019/01/14 16:54 EST    1.18   2.87   14    3   16  35.4 -99.9 1021.3 -9.9 -9.999 -99.9 -99.99 -9.99
2019/01/14 17:00 EST    1.13   2.84   12  354   15  35.8 -99.9 1021.3 -9.9 -9.999 -99.9 -99.99 -9.99
2019/01/14 17:06 EST    1.09   2.72   16    5   17  35.4 -99.9 1021.3 -9.9 -9.999 -99.9 -99.99 -9.99
2019/01/14 17:12 EST    1.04   2.65   12  359   16  35.6 -99.9 1021.4 -9.9 -9.999 -99.9 -99.99 -9.99
2019/01/14 17:18 EST    0.99   2.64   13    9   16  35.6 -99.9 1021.4 -9.9 -9.999 -99.9 -99.99 -9.99
2019/01/14 17:24 EST    0.95   2.61   12    3   17  35.8 -99.9 1021.4 -9.9 -9.999 -99.9 -99.99 -9.99
2019/01/14 17:30 EST    0.90   2.47   15    1   17  35.8 -99.9 1021.3 -9.9 -9.999 -99.9 -99.99 -9.99
2019/01/14 17:36 EST    0.85   2.43   13    5   16  35.8 -99.9 1021.3 -9.9 -9.999 -99.9 -99.99 -9.99
2019/01/14 17:42 EST    0.80   2.37   12    6   15  36.0 -99.9 1021.4 -9.9 -9.999 -99.9 -99.99 -9.99
2019/01/14 17:48 EST    0.75   2.35   14    4   16  36.0 -99.9 1021.5 -9.9 -9.999 -99.9 -99.99 -9.99
2019/01/14 17:54 EST    0.70   2.28   11  357   16  35.8 -99.9 1021.5 -9.9 -9.999 -99.9 -99.99 -9.99
2019/01/14 18:00 EST    0.66   2.14   12  349   15  35.8 -99.9 1021.5 -9.9 -9.999 -99.9 -99.99 -9.99
2019/01/14 18:06 EST    0.61   2.13   12  349   15  35.8 -99.9 1021.5 -9.9 -9.999 -99.9 -99.99 -9.99
2019/01/14 18:12 EST    0.57   2.06   11  335   14  35.8 -99.9 1021.5 -9.9 -9.999 -99.9 -99.99 -9.99
2019/01/14 18:18 EST    0.52   1.97   11  346   16  35.8 -99.9 1021.6 -9.9 -9.999 -99.9 -99.99 -9.99
2019/01/14 18:24 EST    0.48   1.99   12  347   14  35.6 -99.9 1021.6 -9.9 -9.999 -99.9 -99.99 -9.99
2019/01/14 18:30 EST    0.44   1.87   11  345   13  35.6 -99.9 1021.6 -9.9 -9.999 -99.9 -99.99 -9.99
2019/01/14 18:36 EST    0.40   1.91   11  337   13  35.6 -99.9 1021.6 -9.9 -9.999 -99.9 -99.99 -9.99
2019/01/14 18:42 EST    0.36   1.85   12  343   14  35.6 -99.9 1021.7 -9.9 -9.999 -99.9 -99.99 -9.99
2019/01/14 18:48 EST    0.33   1.75   11  338   13  35.4 -99.9 1021.7 -9.9 -9.999 -99.9 -99.99 -9.99
2019/01/14 18:54 EST    0.30   1.74   11  334   14  35.4 -99.9 1021.7 -9.9 -9.999 -99.9 -99.99 -9.99
2019/01/14 19:00 EST    0.27   1.73   10  345   13  35.6 -99.9 1021.7 -9.9 -9.999 -99.9 -99.99 -9.99
2019/01/14 19:06 EST    0.24   1.64    9  344   13  35.6 -99.9 1021.7 -9.9 -9.999 -99.9 -99.99 -9.99
2019/01/14 19:12 EST    0.21   1.60   10  349   13  35.4 -99.9 1021.7 -9.9 -9.999 -99.9 -99.99 -9.99
2019/01/14 19:18 EST    0.19   1.60   10  338   13  35.4 -99.9 1021.6 -9.9 -9.999 -99.9 -99.99 -9.99
2019/01/14 19:24 EST    0.17   1.61    9  340   16  35.4 -99.9 1021.6 -9.9 -9.999 -99.9 -99.99 -9.99
2019/01/14 19:30 EST    0.16   1.55   10  341   13  35.2 -99.9 1021.6 -9.9 -9.999 -99.9 -99.99 -9.99
2019/01/14 19:36 EST    0.14   1.55   11  332   13  35.2 -99.9 1021.6 -9.9 -9.999 -99.9 -99.99 -9.99
2019/01/14 19:42 EST    0.13   1.60   11  331   13  35.2 -99.9 1021.6 -9.9 -9.999 -99.9 -99.99 -9.99
2019/01/14 19:48 EST    0.13   1.53   10  336   13  35.1 -99.9 1021.6 -9.9 -9.999 -99.9 -99.99 -9.99
2019/01/14 19:54 EST    0.12   1.47   11  334   14  35.1 -99.9 1021.6 -9.9 -9.999 -99.9 -99.99 -9.99
2019/01/14 20:00 EST    0.12   1.47   12  338   14  35.1 -99.9 1021.5 -9.9 -9.999 -99.9 -99.99 -9.99
2019/01/14 20:06 EST    0.12   1.47   12  339   15  35.1 -99.9 1021.5 -9.9 -9.999 -99.9 -99.99 -9.99
2019/01/14 20:12 EST    0.13   1.48   11  342   14  34.9 -99.9 1021.5 -9.9 -9.999 -99.9 -99.99 -9.99
2019/01/14 20:18 EST    0.13   1.42   11  345   13  34.9 -99.9 1021.4 -9.9 -9.999 -99.9 -99.99 -9.99
2019/01/14 20:24 EST    0.14   1.43   11  346   13  34.9 -99.9 1021.4 -9.9 -9.999 -99.9 -99.99 -9.99
2019/01/14 20:30 EST    0.15   1.48   10  349   13  34.7 -99.9 1021.4 -9.9 -9.999 -99.9 -99.99 -9.99
2019/01/14 20:36 EST    0.17   1.48   10  335   13  34.7 -99.9 1021.4 -9.9 -9.999 -99.9 -99.99 -9.99
2019/01/14 20:42 EST    0.19   1.47   11  342   13  34.7 -99.9 1021.3 -9.9 -9.999 -99.9 -99.99 -9.99
2019/01/14 20:48 EST    0.21   1.47   10  352   13  34.5 -99.9 1021.3 -9.9 -9.999 -99.9 -99.99 -9.99
2019/01/14 20:54 EST    0.23   1.54   10  343   12  34.5 -99.9 1021.4 -9.9 -9.999 -99.9 -99.99 -9.99
2019/01/14 21:00 EST    0.26   1.51   10  355   12  34.5 -99.9 1021.4 -9.9 -9.999 -99.9 -99.99 -9.99
2019/01/14 21:06 EST    0.28   1.54   10  350   12  34.5 -99.9 1021.4 -9.9 -9.999 -99.9 -99.99 -9.99
2019/01/14 21:12 EST    0.31   1.57   11  347   12  34.5 -99.9 1021.4 -9.9 -9.999 -99.9 -99.99 -9.99
2019/01/14 21:18 EST    0.35   1.60   11    6   14  34.5 -99.9 1021.4 -9.9 -9.999 -99.9 -99.99 -9.99
2019/01/14 21:24 EST    0.38   1.59   11  350   12  34.5 -99.9 1021.5 -9.9 -9.999 -99.9 -99.99 -9.99
2019/01/14 21:30 EST    0.42   1.64   11  352   13  34.5 -99.9 1021.5 -9.9 -9.999 -99.9 -99.99 -9.99
2019/01/14 21:36 EST    0.45   1.68   10  354   12  34.5 -99.9 1021.6 -9.9 -9.999 -99.9 -99.99 -9.99
2019/01/14 21:42 EST    0.49   1.72    9  351   13  34.5 -99.9 1021.6 -9.9 -9.999 -99.9 -99.99 -9.99
2019/01/14 21:48 EST    0.54   1.79   10  357   12  34.5 -99.9 1021.6 -9.9 -9.999 -99.9 -99.99 -9.99
2019/01/14 21:54 EST    0.58   1.77   11  345   13  34.5 -99.9 1021.6 -9.9 -9.999 -99.9 -99.99 -9.99
2019/01/14 22:00 EST    0.62   1.84   10  352   14  34.5 -99.9 1021.6 -9.9 -9.999 -99.9 -99.99 -9.99
2019/01/14 22:06 EST    0.67   1.82   11  354   14  34.5 -99.9 1021.7 -9.9 -9.999 -99.9 -99.99 -9.99
2019/01/14 22:12 EST    0.72   1.92   12    3   14  34.7 -99.9 1021.7 -9.9 -9.999 -99.9 -99.99 -9.99
2019/01/14 22:18 EST    0.77   1.93   13  355   14  34.7 -99.9 1021.6 -9.9 -9.999 -99.9 -99.99 -9.99
2019/01/14 22:24 EST    0.82   2.04   13    2   15  34.7 -99.9 1021.6 -9.9 -9.999 -99.9 -99.99 -9.99
2019/01/14 22:30 EST    0.87   2.02   14  360   16  34.9 -99.9 1021.5 -9.9 -9.999 -99.9 -99.99 -9.99
2019/01/14 22:36 EST    0.92   2.05   14    6   16  34.9 -99.9 1021.5 -9.9 -9.999 -99.9 -99.99 -9.99
2019/01/14 22:42 EST    0.97   2.12   13    7   16  35.1 -99.9 1021.4 -9.9 -9.999 -99.9 -99.99 -9.99
2019/01/14 22:48 EST    1.03   2.17   13    2   16  35.1 -99.9 1021.5 -9.9 -9.999 -99.9 -99.99 -9.99
2019/01/14 22:54 EST    1.08   2.25   13    2   16  35.1 -99.9 1021.5 -9.9 -9.999 -99.9 -99.99 -9.99
2019/01/14 23:00 EST    1.13   2.34   12  351   15  34.9 -99.9 1021.5 -9.9 -9.999 -99.9 -99.99 -9.99
2019/01/14 23:06 EST    1.19   2.37   13    6   15  35.1 -99.9 1021.5 -9.9 -9.999 -99.9 -99.99 -9.99
2019/01/14 23:12 EST    1.24   2.45   12    5   15  34.9 -99.9 1021.5 -9.9 -9.999 -99.9 -99.99 -9.99
2019/01/14 23:18 EST    1.30   2.48   13    4   15  34.9 -99.9 1021.4 -9.9 -9.999 -99.9 -99.99 -9.99
2019/01/14 23:24 EST    1.35   2.53   13    6   15  35.1 -99.9 1021.4 -9.9 -9.999 -99.9 -99.99 -9.99
2019/01/14 23:30 EST    1.41   2.61   12    8   15  35.2 -99.9 1021.4 -9.9 -9.999 -99.9 -99.99 -9.99
2019/01/14 23:36 EST    1.46   2.68   12   11   15  35.2 -99.9 1021.4 -9.9 -9.999 -99.9 -99.99 -9.99
2019/01/14 23:42 EST    1.52   2.72   12   13   13  35.1 -99.9 1021.4 -9.9 -9.999 -99.9 -99.99 -9.99
2019/01/14 23:48 EST    1.57   2.79   11    4   15  35.1 -99.9 1021.4 -9.9 -9.999 -99.9 -99.99 -9.99
2019/01/14 23:54 EST    1.62   2.83   11   10   12  35.2 -99.9 1021.5 -9.9 -9.999 -99.9 -99.99 -9.99
2019/01/15 00:00 EST    1.68   2.94   11  360   13  35.1 -99.9 1021.4 -9.9 -9.999 -99.9 -99.99 -9.99
2019/01/15 00:06 EST    1.73   3.05   10  348   12  35.1 -99.9 1021.4 -9.9 -9.999 -99.9 -99.99 -9.99
2019/01/15 00:12 EST    1.78   3.02   10    1   14  35.1 -99.9 1021.3 -9.9 -9.999 -99.9 -99.99 -9.99
2019/01/15 00:18 EST    1.83   3.12   10  353   13  35.1 -99.9 1021.2 -9.9 -9.999 -99.9 -99.99 -9.99
2019/01/15 00:24 EST    1.87   3.18   12  358   13  35.1 -99.9 1021.1 -9.9 -9.999 -99.9 -99.99 -9.99
2019/01/15 00:30 EST    1.92   3.21   10    0   12  35.2 -99.9 1021.1 -9.9 -9.999 -99.9 -99.99 -9.99
2019/01/15 00:36 EST    1.96   3.26   11    8   14  35.2 -99.9 1021.0 -9.9 -9.999 -99.9 -99.99 -9.99
2019/01/15 00:42 EST    2.00   3.28    9    8   12  35.2 -99.9 1021.0 -9.9 -9.999 -99.9 -99.99 -9.99
2019/01/15 00:48 EST    2.04   3.35   10  357   14  35.2 -99.9 1021.1 -9.9 -9.999 -99.9 -99.99 -9.99
2019/01/15 00:54 EST    2.08   3.38    9  353   13  35.4 -99.9 1021.1 -9.9 -9.999 -99.9 -99.99 -9.99
2019/01/15 01:00 EST    2.12   3.41    9  356   12  35.4 -99.9 1021.1 -9.9 -9.999 -99.9 -99.99 -9.99
2019/01/15 01:06 EST    2.15   3.43    9  344   12  35.4 -99.9 1021.0 -9.9 -9.999 -99.9 -99.99 -9.99
2019/01/15 01:12 EST    2.18   3.51   10  340   12  35.1 -99.9 1021.0 -9.9 -9.999 -99.9 -99.99 -9.99
2019/01/15 01:18 EST    2.21   3.47   10  339   12  35.1 -99.9 1021.1 -9.9 -9.999 -99.9 -99.99 -9.99
2019/01/15 01:24 EST    2.23   3.51    9  348   13  35.1 -99.9 1021.2 -9.9 -9.999 -99.9 -99.99 -9.99
2019/01/15 01:30 EST    2.26   3.53   10  346   12  35.1 -99.9 1021.2 -9.9 -9.999 -99.9 -99.99 -9.99
2019/01/15 01:36 EST    2.28   3.60   10  344   12  35.1 -99.9 1021.2 -9.9 -9.999 -99.9 -99.99 -9.99
2019/01/15 01:42 EST    2.29   3.60   11  352   13  35.1 -99.9 1021.2 -9.9 -9.999 -99.9 -99.99 -9.99
2019/01/15 01:48 EST    2.31   3.61   10  346   14  35.2 -99.9 1021.2 -9.9 -9.999 -99.9 -99.99 -9.99
2019/01/15 01:54 EST    2.32   3.65   10  358   12  35.2 -99.9 1021.2 -9.9 -9.999 -99.9 -99.99 -9.99
2019/01/15 02:00 EST    2.33   3.63   11  349   13  35.2 -99.9 1021.2 -9.9 -9.999 -99.9 -99.99 -9.99
2019/01/15 02:06 EST    2.33   3.57   11  356   13  35.4 -99.9 1021.1 -9.9 -9.999 -99.9 -99.99 -9.99
2019/01/15 02:12 EST    2.34   3.62   11  355   13  35.4 -99.9 1021.1 -9.9 -9.999 -99.9 -99.99 -9.99
2019/01/15 02:18 EST    2.34   3.65   11  348   13  35.4 -99.9 1021.2 -9.9 -9.999 -99.9 -99.99 -9.99
2019/01/15 02:24 EST    2.34   3.61   11  355   13  35.4 -99.9 1021.2 -9.9 -9.999 -99.9 -99.99 -9.99
2019/01/15 02:30 EST    2.33   3.60   11  357   13  35.4 -99.9 1021.2 -9.9 -9.999 -99.9 -99.99 -9.99
2019/01/15 02:36 EST    2.33   3.60   11  350   12  35.4 -99.9 1021.2 -9.9 -9.999 -99.9 -99.99 -9.99
2019/01/15 02:42 EST    2.32   3.56   10    4   13  35.4 -99.9 1021.1 -9.9 -9.999 -99.9 -99.99 -9.99
2019/01/15 02:48 EST    2.31   3.55   10  350   14  35.6 -99.9 1021.1 -9.9 -9.999 -99.9 -99.99 -9.99
2019/01/15 02:54 EST    2.30   3.55   12  349   14  35.6 -99.9 1021.1 -9.9 -9.999 -99.9 -99.99 -9.99
2019/01/15 03:00 EST    2.28   3.54   11  340   13  35.6 -99.9 1021.0 -9.9 -9.999 -99.9 -99.99 -9.99
2019/01/15 03:06 EST    2.26   3.51   11  352   14  35.6 -99.9 1021.0 -9.9 -9.999 -99.9 -99.99 -9.99
2019/01/15 03:12 EST    2.25   3.47   13  346   14  35.4 -99.9 1021.0 -9.9 -9.999 -99.9 -99.99 -9.99
2019/01/15 03:18 EST    2.23   3.50   11  341   13  35.4 -99.9 1021.0 -9.9 -9.999 -99.9 -99.99 -9.99
2019/01/15 03:24 EST    2.21   3.50   12  350   14  35.6 -99.9 1021.0 -9.9 -9.999 -99.9 -99.99 -9.99
2019/01/15 03:30 EST    2.18   3.53   12  356   15  35.6 -99.9 1020.9 -9.9 -9.999 -99.9 -99.99 -9.99
2019/01/15 03:36 EST    2.16   3.51   12  340   14  35.4 -99.9 1020.9 -9.9 -9.999 -99.9 -99.99 -9.99
2019/01/15 03:42 EST    2.14   3.51   11  340   13  35.4 -99.9 1020.9 -9.9 -9.999 -99.9 -99.99 -9.99
2019/01/15 03:48 EST    2.11   3.53   11  342   14  35.4 -99.9 1020.8 -9.9 -9.999 -99.9 -99.99 -9.99
2019/01/15 03:54 EST    2.08   3.44    9  351   13  35.6 -99.9 1020.8 -9.9 -9.999 -99.9 -99.99 -9.99
2019/01/15 04:00 EST    2.06   3.42   10  356   12  35.4 -99.9 1020.7 -9.9 -9.999 -99.9 -99.99 -9.99
2019/01/15 04:06 EST    2.03   3.47   10  360   12  35.6 -99.9 1020.7 -9.9 -9.999 -99.9 -99.99 -9.99
2019/01/15 04:12 EST    2.00   3.38   10  357   12  35.8 -99.9 1020.7 -9.9 -9.999 -99.9 -99.99 -9.99
2019/01/15 04:18 EST    1.96   3.33   10    1   13  35.8 -99.9 1020.7 -9.9 -9.999 -99.9 -99.99 -9.99
2019/01/15 04:24 EST    1.93   3.35   11  347   14  35.6 -99.9 1020.7 -9.9 -9.999 -99.9 -99.99 -9.99
2019/01/15 04:30 EST    1.90   3.27   11  342   13  35.8 -99.9 1020.8 -9.9 -9.999 -99.9 -99.99 -9.99
2019/01/15 04:36 EST    1.86   3.24   11  332   14  35.8 -99.9 1020.8 -9.9 -9.999 -99.9 -99.99 -9.99
2019/01/15 04:42 EST    1.83   3.19   12  341   14  35.6 -99.9 1020.8 -9.9 -9.999 -99.9 -99.99 -9.99
2019/01/15 04:48 EST    1.79   3.15   11  342   15  35.8 -99.9 1020.8 -9.9 -9.999 -99.9 -99.99 -9.99
2019/01/15 04:54 EST    1.75   3.14   13  341   15  35.6 -99.9 1020.8 -9.9 -9.999 -99.9 -99.99 -9.99
2019/01/15 05:00 EST    1.71   3.14   13  334   14  35.6 -99.9 1020.7 -9.9 -9.999 -99.9 -99.99 -9.99
2019/01/15 05:06 EST    1.67   3.08   13  339   15  35.6 -99.9 1020.8 -9.9 -9.999 -99.9 -99.99 -9.99
2019/01/15 05:12 EST    1.62   3.03   13  335   15  35.8 -99.9 1020.8 -9.9 -9.999 -99.9 -99.99 -9.99
2019/01/15 05:18 EST    1.58   2.96   13  338   16  35.6 -99.9 1020.8 -9.9 -9.999 -99.9 -99.99 -9.99
2019/01/15 05:24 EST    1.53   2.88   13  341   15  35.6 -99.9 1020.8 -9.9 -9.999 -99.9 -99.99 -9.99
2019/01/15 05:30 EST    1.48   2.85   12  337   15  35.6 -99.9 1020.8 -9.9 -9.999 -99.9 -99.99 -9.99
2019/01/15 05:36 EST    1.44   2.77   12  338   14  35.6 -99.9 1020.8 -9.9 -9.999 -99.9 -99.99 -9.99
2019/01/15 05:42 EST    1.39   2.73   12  334   14  35.8 -99.9 1020.8 -9.9 -9.999 -99.9 -99.99 -9.99
2019/01/15 05:48 EST    1.34   2.72   12  339   14  35.6 -99.9 1020.8 -9.9 -9.999 -99.9 -99.99 -9.99
2019/01/15 05:54 EST    1.29   2.57   12  341   14  35.6 -99.9 1020.7 -9.9 -9.999 -99.9 -99.99 -9.99
2019/01/15 06:00 EST    1.23   2.53   12  340   14  35.8 -99.9 1020.7 -9.9 -9.999 -99.9 -99.99 -9.99
2019/01/15 06:06 EST    1.18   2.46   13  336   15  35.8 -99.9 1020.8 -9.9 -9.999 -99.9 -99.99 -9.99
2019/01/15 06:12 EST    1.13   2.40   13  340   15  35.6 -99.9 1020.9 -9.9 -9.999 -99.9 -99.99 -9.99
2019/01/15 06:18 EST    1.08   2.31   13  341   15  35.8 -99.9 1020.9 -9.9 -9.999 -99.9 -99.99 -9.99
2019/01/15 06:24 EST    1.03   2.32   13  335   15  35.6 -99.9 1020.9 -9.9 -9.999 -99.9 -99.99 -9.99
2019/01/15 06:30 EST    0.98   2.21   13  340   15  35.6 -99.9 1021.0 -9.9 -9.999 -99.9 -99.99 -9.99
2019/01/15 06:36 EST    0.93   2.17   14  346   16  35.4 -99.9 1021.0 -9.9 -9.999 -99.9 -99.99 -9.99
2019/01/15 06:42 EST    0.88   2.10   12  336   14  35.6 -99.9 1021.1 -9.9 -9.999 -99.9 -99.99 -9.99
2019/01/15 06:48 EST    0.83   2.11   13  346   15  35.2 -99.9 1021.1 -9.9 -9.999 -99.9 -99.99 -9.99
2019/01/15 06:54 EST    0.78   2.06   13  343   15  35.1 -99.9 1021.1 -9.9 -9.999 -99.9 -99.99 -9.99
2019/01/15 07:00 EST    0.73   1.99   12  341   14  35.1 -99.9 1021.2 -9.9 -9.999 -99.9 -99.99 -9.99
2019/01/15 07:06 EST    0.69   1.97   13  342   15  34.9 -99.9 1021.3 -9.9 -9.999 -99.9 -99.99 -9.99
2019/01/15 07:12 EST    0.65   1.92   14  338   15  34.7 -99.9 1021.3 -9.9 -9.999 -99.9 -99.99 -9.99
2019/01/15 07:18 EST    0.61   1.82   14  341   15  34.9 -99.9 1021.3 -9.9 -9.999 -99.9 -99.99 -9.99
2019/01/15 07:24 EST    0.57   1.88   13  345   15  34.9 -99.9 1021.3 -9.9 -9.999 -99.9 -99.99 -9.99
2019/01/15 07:30 EST    0.53   1.85   14  335   15  34.9 -99.9 1021.3 -9.9 -9.999 -99.9 -99.99 -9.99
2019/01/15 07:36 EST    0.50   1.78   13  344   16  34.9 -99.9 1021.4 -9.9 -9.999 -99.9 -99.99 -9.99
2019/01/15 07:42 EST    0.47   1.74   13  346   15  34.7 -99.9 1021.4 -9.9 -9.999 -99.9 -99.99 -9.99
2019/01/15 07:48 EST    0.44   1.75   12  345   15  34.7 -99.9 1021.5 -9.9 -9.999 -99.9 -99.99 -9.99
2019/01/15 07:54 EST    0.41   1.69   12  347   14  34.7 -99.9 1021.5 -9.9 -9.999 -99.9 -99.99 -9.99
2019/01/15 08:00 EST    0.38   1.70   12  348   14  34.9 -99.9 1021.6 -9.9 -9.999 -99.9 -99.99 -9.99
2019/01/15 08:06 EST    0.36   1.68   13  345   15  34.9 -99.9 1021.6 -9.9 -9.999 -99.9 -99.99 -9.99
2019/01/15 08:12 EST    0.34   1.66   12  339   15  35.1 -99.9 1021.7 -9.9 -9.999 -99.9 -99.99 -9.99
2019/01/15 08:18 EST    0.33   1.66   12  341   14  34.9 -99.9 1021.7 -9.9 -9.999 -99.9 -99.99 -9.99
2019/01/15 08:24 EST    0.31   1.63   11  350   14  34.9 -99.9 1021.7 -9.9 -9.999 -99.9 -99.99 -9.99
2019/01/15 08:30 EST    0.30   1.66   11  359   14  35.4 -99.9 1021.8 -9.9 -9.999 -99.9 -99.99 -9.99
2019/01/15 08:36 EST    0.29   1.64   11  355   14  35.4 -99.9 1021.9 -9.9 -9.999 -99.9 -99.99 -9.99
2019/01/15 08:42 EST    0.28   1.67   12  351   13  35.6 -99.9 1022.0 -9.9 -9.999 -99.9 -99.99 -9.99
2019/01/15 08:48 EST    0.28   1.68   12  351   14  35.6 -99.9 1022.0 -9.9 -9.999 -99.9 -99.99 -9.99
2019/01/15 08:54 EST    0.27   1.65   11  357   13  35.8 -99.9 1022.1 -9.9 -9.999 -99.9 -99.99 -9.99
2019/01/15 09:00 EST    0.28   1.69   11    4   13  35.8 -99.9 1022.2 -9.9 -9.999 -99.9 -99.99 -9.99
2019/01/15 09:06 EST    0.28   1.73   11  354   13 -99.9 -99.9 -999.9 -9.9 -9.999 -99.9 -99.99 -9.99
2019/01/15 09:12 EST    0.28   1.68   11  350   13  35.8 -99.9 1022.6 -9.9 -9.999 -99.9 -99.99 -9.99
2019/01/15 09:18 EST    0.29   1.69   11  348   13  36.0 -99.9 1022.7 -9.9 -9.999 -99.9 -99.99 -9.99
2019/01/15 09:24 EST    0.30   1.77   12  343   14  36.0 -99.9 1022.8 -9.9 -9.999 -99.9 -99.99 -9.99
2019/01/15 09:30 EST    0.31   1.75   13  342   15  35.8 -99.9 1022.8 -9.9 -9.999 -99.9 -99.99 -9.99
2019/01/15 09:36 EST    0.32   1.74   12  343   15  35.8 -99.9 1022.8 -9.9 -9.999 -99.9 -99.99 -9.99
2019/01/15 09:42 EST    0.34   1.80   11  340   14  35.8 -99.9 1022.9 -9.9 -9.999 -99.9 -99.99 -9.99
2019/01/15 09:48 EST    0.36   1.79   13  341   15  35.8 -99.9 1022.9 -9.9 -9.999 -99.9 -99.99 -9.99
2019/01/15 09:54 EST    0.38   1.78   11  360   15  35.8 -99.9 1023.0 -9.9 -9.999 -99.9 -99.99 -9.99
2019/01/15 10:00 EST    0.40   1.81   12  349   14  36.0 -99.9 1022.9 -9.9 -9.999 -99.9 -99.99 -9.99
2019/01/15 10:06 EST    0.43   1.85   11  345   15  36.0 -99.9 1023.0 -9.9 -9.999 -99.9 -99.99 -9.99
2019/01/15 10:12 EST    0.45   1.87   12  343   14  35.8 -99.9 1023.1 -9.9 -9.999 -99.9 -99.99 -9.99
2019/01/15 10:18 EST    0.48   1.88   12  344   14  35.8 -99.9 1023.0 -9.9 -9.999 -99.9 -99.99 -9.99
2019/01/15 10:24 EST    0.51   1.94   11  355   14  36.1 -99.9 1023.0 -9.9 -9.999 -99.9 -99.99 -9.99
2019/01/15 10:30 EST    0.54   1.93   13  357   14  36.1 -99.9 1023.0 -9.9 -9.999 -99.9 -99.99 -9.99
2019/01/15 10:36 EST    0.58   1.96   12  357   14  36.3 -99.9 1023.0 -9.9 -9.999 -99.9 -99.99 -9.99
2019/01/15 10:42 EST    0.61   1.99   13  351   14  36.3 -99.9 1023.1 -9.9 -9.999 -99.9 -99.99 -9.99
2019/01/15 10:48 EST    0.65   2.03   13  360   15  36.3 -99.9 1023.0 -9.9 -9.999 -99.9 -99.99 -9.99
2019/01/15 10:54 EST    0.69   2.03   14  357   15  36.7 -99.9 1023.0 -9.9 -9.999 -99.9 -99.99 -9.99
2019/01/15 11:00 EST    0.73   2.09   15  348   16  36.7 -99.9 1023.0 -9.9 -9.999 -99.9 -99.99 -9.99
2019/01/15 11:06 EST    0.77   2.17   15  345   17  36.7 -99.9 1023.0 -9.9 -9.999 -99.9 -99.99 -9.99
2019/01/15 11:12 EST    0.81   2.16   16  351   18  36.7 -99.9 1023.0 -9.9 -9.999 -99.9 -99.99 -9.99
2019/01/15 11:18 EST    0.85   2.24   16    5   17  36.7 -99.9 1022.8 -9.9 -9.999 -99.9 -99.99 -9.99
2019/01/15 11:24 EST    0.89   2.28   15  353   17  36.7 -99.9 1022.7 -9.9 -9.999 -99.9 -99.99 -9.99
2019/01/15 11:30 EST    0.94   2.34   15  356   18  36.7 -99.9 1022.5 -9.9 -9.999 -99.9 -99.99 -9.99
2019/01/15 11:36 EST    0.98   2.38   14    4   17  36.7 -99.9 1022.4 -9.9 -9.999 -99.9 -99.99 -9.99
2019/01/15 11:42 EST    1.03   2.44   15    6   16  36.7 -99.9 1022.3 -9.9 -9.999 -99.9 -99.99 -9.99
2019/01/15 11:48 EST    1.07   2.48   13    3   17  37.0 -99.9 1022.1 -9.9 -9.999 -99.9 -99.99 -9.99
2019/01/15 11:54 EST    1.12   2.53   13    4   16  37.0 -99.9 1022.0 -9.9 -9.999 -99.9 -99.99 -9.99
2019/01/15 12:00 EST    1.17   2.59   13   10   16  37.2 -99.9 1021.9 -9.9 -9.999 -99.9 -99.99 -9.99
2019/01/15 12:06 EST    1.21   2.64   14  358   16  37.2 -99.9 1021.8 -9.9 -9.999 -99.9 -99.99 -9.99
2019/01/15 12:12 EST    1.26   2.71   13    0   16  37.2 -99.9 1021.7 -9.9 -9.999 -99.9 -99.99 -9.99
2019/01/15 12:18 EST    1.30   2.77   13    6   16  37.2 -99.9 1021.5 -9.9 -9.999 -99.9 -99.99 -9.99
2019/01/15 12:24 EST    1.35   2.78   12  359   14  37.4 -99.9 1021.4 -9.9 -9.999 -99.9 -99.99 -9.99
2019/01/15 12:30 EST    1.39   2.84   12    1   15  37.4 -99.9 1021.4 -9.9 -9.999 -99.9 -99.99 -9.99
2019/01/15 12:36 EST    1.43   2.86   12  348   14  37.4 -99.9 1021.3 -9.9 -9.999 -99.9 -99.99 -9.99
2019/01/15 12:42 EST    1.48   2.85   12    2   14  37.4 -99.9 1021.2 -9.9 -9.999 -99.9 -99.99 -9.99
2019/01/15 12:48 EST    1.52   3.00   12    2   13  37.6 -99.9 1021.2 -9.9 -9.999 -99.9 -99.99 -9.99
2019/01/15 12:54 EST    1.56   2.98   12  358   14  37.6 -99.9 1021.2 -9.9 -9.999 -99.9 -99.99 -9.99
2019/01/15 13:00 EST    1.60   3.04   12  350   15  37.6 -99.9 1021.3 -9.9 -9.999 -99.9 -99.99 -9.99
2019/01/15 13:06 EST    1.63   3.05   12    1   16  37.6 -99.9 1021.3 -9.9 -9.999 -99.9 -99.99 -9.99
2019/01/15 13:12 EST    1.67   3.09   12  359   14  37.8 -99.9 1021.3 -9.9 -9.999 -99.9 -99.99 -9.99
2019/01/15 13:18 EST    1.70   3.10   12    6   14  37.8 -99.9 1021.2 -9.9 -9.999 -99.9 -99.99 -9.99
2019/01/15 13:24 EST    1.74   3.16   11  356   13  37.8 -99.9 1021.1 -9.9 -9.999 -99.9 -99.99 -9.99
2019/01/15 13:30 EST    1.77   3.19   11  348   13  37.9 -99.9 1021.1 -9.9 -9.999 -99.9 -99.99 -9.99
2019/01/15 13:36 EST    1.80   3.15   11    4   12  37.9 -99.9 1021.0 -9.9 -9.999 -99.9 -99.99 -9.99
2019/01/15 13:42 EST    1.82   3.21    9    7   11  38.1 -99.9 1020.9 -9.9 -9.999 -99.9 -99.99 -9.99
2019/01/15 13:48 EST    1.85   3.19    9   12   12  38.1 -99.9 1020.9 -9.9 -9.999 -99.9 -99.99 -9.99
2019/01/15 13:54 EST    1.87   3.23    9   10   11  38.3 -99.9 1020.9 -9.9 -9.999 -99.9 -99.99 -9.99
2019/01/15 14:00 EST    1.89   3.20   10   11   12  38.3 -99.9 1020.9 -9.9 -9.999 -99.9 -99.99 -9.99
2019/01/15 14:06 EST    1.90   3.26   10   16   11  38.3 -99.9 1020.9 -9.9 -9.999 -99.9 -99.99 -9.99
2019/01/15 14:12 EST    1.92   3.25   10    9   11  38.3 -99.9 1020.8 -9.9 -9.999 -99.9 -99.99 -9.99
2019/01/15 14:18 EST    1.93   3.26   11   15   12  38.3 -99.9 1020.8 -9.9 -9.999 -99.9 -99.99 -9.99
2019/01/15 14:24 EST    1.94   3.29    9   20   12  38.5 -99.9 1020.8 -9.9 -9.999 -99.9 -99.99 -9.99
2019/01/15 14:30 EST    1.94   3.29   10   20   11  38.5 -99.9 1020.9 -9.9 -9.999 -99.9 -99.99 -9.99
2019/01/15 14:36 EST    1.95   3.27   10   20   12  38.5 -99.9 1020.9 -9.9 -9.999 -99.9 -99.99 -9.99
2019/01/15 14:42 EST    1.95   3.27   10   11   12  38.5 -99.9 1020.9 -9.9 -9.999 -99.9 -99.99 -9.99
2019/01/15 14:48 EST    1.95   3.30    8   16   11  38.5 -99.9 1020.9 -9.9 -9.999 -99.9 -99.99 -9.99
2019/01/15 14:54 EST    1.95   3.29    9   21   11  38.3 -99.9 1021.0 -9.9 -9.999 -99.9 -99.99 -9.99
2019/01/15 15:00 EST    1.94   3.31    8   16   10  38.3 -99.9 1021.1 -9.9 -9.999 -99.9 -99.99 -9.99
2019/01/15 15:06 EST    1.94   3.27    8   12   10  38.3 -99.9 1021.1 -9.9 -9.999 -99.9 -99.99 -9.99
2019/01/15 15:12 EST    1.93   3.28    8   16    9  38.5 -99.9 1021.2 -9.9 -9.999 -99.9 -99.99 -9.99
2019/01/15 15:18 EST    1.92   3.23    7   11    9  38.5 -99.9 1021.2 -9.9 -9.999 -99.9 -99.99 -9.99
2019/01/15 15:24 EST    1.90   3.25    6    8    8  38.8 -99.9 1021.2 -9.9 -9.999 -99.9 -99.99 -9.99
2019/01/15 15:30 EST    1.89   3.23    6    3    8  39.4 -99.9 1021.2 -9.9 -9.999 -99.9 -99.99 -9.99
2019/01/15 15:36 EST    1.87   3.25    4    1    7  39.9 -99.9 1021.1 -9.9 -9.999 -99.9 -99.99 -9.99
2019/01/15 15:42 EST    1.86   3.18    4  350    5  40.1 -99.9 1021.1 -9.9 -9.999 -99.9 -99.99 -9.99
2019/01/15 15:48 EST    1.84   3.18    4  344    5  40.5 -99.9 1021.1 -9.9 -9.999 -99.9 -99.99 -9.99
2019/01/15 15:54 EST    1.82   3.18    5  336    6  40.1 -99.9 1021.2 -9.9 -9.999 -99.9 -99.99 -9.99
2019/01/15 16:00 EST    1.79   3.14    4  338    6  39.4 -99.9 1021.3 -9.9 -9.999 -99.9 -99.99 -9.99
2019/01/15 16:06 EST    1.77   3.17    4  328    5  39.2 -99.9 1021.3 -9.9 -9.999 -99.9 -99.99 -9.99
2019/01/15 16:12 EST    1.74   3.12    4  328    5  39.2 -99.9 1021.2 -9.9 -9.999 -99.9 -99.99 -9.99
2019/01/15 16:18 EST    1.72   3.08    4  304    4  39.0 -99.9 1021.3 -9.9 -9.999 -99.9 -99.99 -9.99
2019/01/15 16:24 EST    1.69   3.06    4  323    4  39.0 -99.9 1021.2 -9.9 -9.999 -99.9 -99.99 -9.99
2019/01/15 16:30 EST    1.66   3.02    3  308    4  39.6 -99.9 1021.3 -9.9 -9.999 -99.9 -99.99 -9.99
2019/01/15 16:36 EST    1.63   3.01    4  305    6  39.6 -99.9 1021.3 -9.9 -9.999 -99.9 -99.99 -9.99
2019/01/15 16:42 EST    1.60   2.96    5  288    6  39.2 -99.9 1021.3 -9.9 -9.999 -99.9 -99.99 -9.99
2019/01/15 16:48 EST    1.56   2.91    4  281    5  38.8 -99.9 1021.4 -9.9 -9.999 -99.9 -99.99 -9.99
2019/01/15 16:54 EST    1.53   2.91    3  266    5  38.8 -99.9 1021.2 -9.9 -9.999 -99.9 -99.99 -9.99
2019/01/15 17:00 EST    1.49   2.88    2  238    3  38.7 -99.9 1021.1 -9.9 -9.999 -99.9 -99.99 -9.99
2019/01/15 17:06 EST    1.46   2.79    3  249    4  38.7 -99.9 1021.0 -9.9 -9.999 -99.9 -99.99 -9.99
2019/01/15 17:12 EST    1.42   2.79    2  229    3  38.5 -99.9 1021.0 -9.9 -9.999 -99.9 -99.99 -9.99
2019/01/15 17:18 EST    1.37   2.73    1  220    2  38.3 -99.9 1021.0 -9.9 -9.999 -99.9 -99.99 -9.99
2019/01/15 17:24 EST    1.33   2.70    2  287    3  38.1 -99.9 1021.1 -9.9 -9.999 -99.9 -99.99 -9.99
2019/01/15 17:30 EST    1.29   2.65    3  263    4  38.3 -99.9 1021.1 -9.9 -9.999 -99.9 -99.99 -9.99
2019/01/15 17:36 EST    1.24   2.59    3  271    4  38.5 -99.9 1021.2 -9.9 -9.999 -99.9 -99.99 -9.99
2019/01/15 17:42 EST    1.20   2.54    3  279    3  38.5 -99.9 1021.2 -9.9 -9.999 -99.9 -99.99 -9.99
2019/01/15 17:48 EST    1.15   2.50    3  273    4  38.7 -99.9 1021.3 -9.9 -9.999 -99.9 -99.99 -9.99
2019/01/15 17:54 EST    1.10   2.42    3  274    4  38.7 -99.9 1021.3 -9.9 -9.999 -99.9 -99.99 -9.99
2019/01/15 18:00 EST    1.05   2.37    4  263    4  38.7 -99.9 1021.3 -9.9 -9.999 -99.9 -99.99 -9.99
2019/01/15 18:06 EST    1.00   2.28    3  251    5  38.8 -99.9 1021.3 -9.9 -9.999 -99.9 -99.99 -9.99
2019/01/15 18:12 EST    0.95   2.21    4  251    5  38.8 -99.9 1021.3 -9.9 -9.999 -99.9 -99.99 -9.99
2019/01/15 18:18 EST    0.90   2.14    5  265    7  39.2 -99.9 1021.3 -9.9 -9.999 -99.9 -99.99 -9.99
2019/01/15 18:24 EST    0.85   2.05    5  286    6  39.4 -99.9 1021.4 -9.9 -9.999 -99.9 -99.99 -9.99
2019/01/15 18:30 EST    0.80   2.01   11  308   12  39.7 -99.9 1021.4 -9.9 -9.999 -99.9 -99.99 -9.99
2019/01/15 18:36 EST    0.75   1.94    9  307   11  39.9 -99.9 1021.5 -9.9 -9.999 -99.9 -99.99 -9.99
2019/01/15 18:42 EST    0.70   1.87   10  306   11  39.9 -99.9 1021.5 -9.9 -9.999 -99.9 -99.99 -9.99
2019/01/15 18:48 EST    0.65   1.82    9  313   11  39.9 -99.9 1021.6 -9.9 -9.999 -99.9 -99.99 -9.99
2019/01/15 18:54 EST    0.60   1.76   11  305   12  39.9 -99.9 1021.6 -9.9 -9.999 -99.9 -99.99 -9.99
2019/01/15 19:00 EST    0.55   1.71   10  297   12  39.9 -99.9 1021.6 -9.9 -9.999 -99.9 -99.99 -9.99
2019/01/15 19:06 EST    0.50   1.65    9  304   11  39.9 -99.9 1021.5 -9.9 -9.999 -99.9 -99.99 -9.99
2019/01/15 19:12 EST    0.46   1.60    9  321   11  39.7 -99.9 1021.6 -9.9 -9.999 -99.9 -99.99 -9.99
2019/01/15 19:18 EST    0.41   1.58    9  317   10  39.9 -99.9 1021.6 -9.9 -9.999 -99.9 -99.99 -9.99
2019/01/15 19:24 EST    0.37   1.55    7  319   10  39.9 -99.9 1021.7 -9.9 -9.999 -99.9 -99.99 -9.99
2019/01/15 19:30 EST    0.33   1.51    7  319    9  39.9 -99.9 1021.7 -9.9 -9.999 -99.9 -99.99 -9.99
2019/01/15 19:36 EST    0.29   1.44    8  310    9  39.9 -99.9 1021.7 -9.9 -9.999 -99.9 -99.99 -9.99
2019/01/15 19:42 EST    0.26   1.40    7  310   10  39.9 -99.9 1021.7 -9.9 -9.999 -99.9 -99.99 -9.99
2019/01/15 19:48 EST    0.23   1.36    8  297    9  39.7 -99.9 1021.7 -9.9 -9.999 -99.9 -99.99 -9.99
2019/01/15 19:54 EST    0.20   1.32    7  303    9  39.7 -99.9 1021.7 -9.9 -9.999 -99.9 -99.99 -9.99
2019/01/15 20:00 EST    0.17   1.29    7  304    9  39.6 -99.9 1021.7 -9.9 -9.999 -99.9 -99.99 -9.99
2019/01/15 20:06 EST    0.15   1.26    8  304    9  39.6 -99.9 1021.7 -9.9 -9.999 -99.9 -99.99 -9.99
2019/01/15 20:12 EST    0.12   1.25    7  307    9  39.6 -99.9 1021.7 -9.9 -9.999 -99.9 -99.99 -9.99
2019/01/15 20:18 EST    0.10   1.20    7  305    9  39.4 -99.9 1021.7 -9.9 -9.999 -99.9 -99.99 -9.99
2019/01/15 20:24 EST    0.09   1.23    6  303    8  39.4 -99.9 1021.7 -9.9 -9.999 -99.9 -99.99 -9.99
2019/01/15 20:30 EST    0.08   1.22    6  312    7  39.4 -99.9 1021.7 -9.9 -9.999 -99.9 -99.99 -9.99
2019/01/15 20:36 EST    0.07   1.20    6  306    6  39.4 -99.9 1021.7 -9.9 -9.999 -99.9 -99.99 -9.99
2019/01/15 20:42 EST    0.06   1.18    5  311    7  39.4 -99.9 1021.7 -9.9 -9.999 -99.9 -99.99 -9.99
2019/01/15 20:48 EST    0.06   1.16    5  308    6  39.2 -99.9 1021.7 -9.9 -9.999 -99.9 -99.99 -9.99
2019/01/15 20:54 EST    0.05   1.17    4  311    6  39.4 -99.9 1021.7 -9.9 -9.999 -99.9 -99.99 -9.99
2019/01/15 21:00 EST    0.06   1.18    5  315    6  39.2 -99.9 1021.7 -9.9 -9.999 -99.9 -99.99 -9.99
2019/01/15 21:06 EST    0.06   1.18    4  307    5  39.2 -99.9 1021.6 -9.9 -9.999 -99.9 -99.99 -9.99
2019/01/15 21:12 EST    0.07   1.18    4  307    5  39.2 -99.9 1021.6 -9.9 -9.999 -99.9 -99.99 -9.99
2019/01/15 21:18 EST    0.08   1.22    3  315    4  39.2 -99.9 1021.6 -9.9 -9.999 -99.9 -99.99 -9.99
2019/01/15 21:24 EST    0.09   1.23    3  296    4  39.0 -99.9 1021.6 -9.9 -9.999 -99.9 -99.99 -9.99
2019/01/15 21:30 EST    0.11   1.24    3  310    4  39.0 -99.9 1021.6 -9.9 -9.999 -99.9 -99.99 -9.99
2019/01/15 21:36 EST    0.13   1.25    3  293    4  39.0 -99.9 1021.6 -9.9 -9.999 -99.9 -99.99 -9.99
2019/01/15 21:42 EST    0.15   1.25    3  290    4  39.0 -99.9 1021.6 -9.9 -9.999 -99.9 -99.99 -9.99
2019/01/15 21:48 EST    0.17   1.28    3  280    3  39.0 -99.9 1021.6 -9.9 -9.999 -99.9 -99.99 -9.99
2019/01/15 21:54 EST    0.20   1.29    2  288    3  38.8 -99.9 1021.7 -9.9 -9.999 -99.9 -99.99 -9.99
2019/01/15 22:00 EST    0.23   1.28    3  302    3  38.8 -99.9 1021.7 -9.9 -9.999 -99.9 -99.99 -9.99
2019/01/15 22:06 EST    0.26   1.31    2  291    3  38.8 -99.9 1021.7 -9.9 -9.999 -99.9 -99.99 -9.99
2019/01/15 22:12 EST    0.30   1.37    2  275    3  38.8 -99.9 1021.7 -9.9 -9.999 -99.9 -99.99 -9.99
2019/01/15 22:18 EST    0.33   1.38    2  267    3  38.8 -99.9 1021.7 -9.9 -9.999 -99.9 -99.99 -9.99
2019/01/15 22:24 EST    0.37   1.39    2  260    3  38.7 -99.9 1021.7 -9.9 -9.999 -99.9 -99.99 -9.99
2019/01/15 22:30 EST    0.42   1.45    4  260    4  38.8 -99.9 1021.8 -9.9 -9.999 -99.9 -99.99 -9.99
2019/01/15 22:36 EST    0.46   1.49    2  268    3  38.8 -99.9 1021.8 -9.9 -9.999 -99.9 -99.99 -9.99
2019/01/15 22:42 EST    0.50   1.55    2  259    3  38.8 -99.9 1021.7 -9.9 -9.999 -99.9 -99.99 -9.99
2019/01/15 22:48 EST    0.55   1.57    2  248    3  38.8 -99.9 1021.7 -9.9 -9.999 -99.9 -99.99 -9.99
2019/01/15 22:54 EST    0.60   1.60    3  248    3  38.8 -99.9 1021.7 -9.9 -9.999 -99.9 -99.99 -9.99
2019/01/15 23:00 EST    0.65   1.69    3  241    4  38.8 -99.9 1021.6 -9.9 -9.999 -99.9 -99.99 -9.99
2019/01/15 23:06 EST    0.71   1.75    3  237    4  38.7 -99.9 1021.6 -9.9 -9.999 -99.9 -99.99 -9.99
2019/01/15 23:12 EST    0.76   1.82    3  234    4  38.7 -99.9 1021.5 -9.9 -9.999 -99.9 -99.99 -9.99
2019/01/15 23:18 EST    0.81   1.87    3  229    4  38.8 -99.9 1021.4 -9.9 -9.999 -99.9 -99.99 -9.99
2019/01/15 23:24 EST    0.87   1.94    3  234    5  38.8 -99.9 1021.3 -9.9 -9.999 -99.9 -99.99 -9.99
2019/01/15 23:30 EST    0.93   1.99    4  218    5  38.8 -99.9 1021.2 -9.9 -9.999 -99.9 -99.99 -9.99
2019/01/15 23:36 EST    0.99   2.08    4  215    5  38.8 -99.9 1021.2 -9.9 -9.999 -99.9 -99.99 -9.99
2019/01/15 23:42 EST    1.05   2.15    4  221    5  38.8 -99.9 1021.2 -9.9 -9.999 -99.9 -99.99 -9.99
2019/01/15 23:48 EST    1.11   2.22    5  219    6  38.8 -99.9 1021.2 -9.9 -9.999 -99.9 -99.99 -9.99
2019/01/15 23:54 EST    1.17   2.25    5  215    6  39.0 -99.9 1021.1 -9.9 -9.999 -99.9 -99.99 -9.99
2019/01/16 00:00 EST    1.23   2.35    6  208    7  38.7 -99.9 1021.1 -9.9 -9.999 -99.9 -99.99 -9.99
2019/01/16 00:06 EST    1.29   2.42    5  213    6  38.7 -99.9 1021.0 -9.9 -9.999 -99.9 -99.99 -9.99
2019/01/16 00:12 EST    1.35   2.47    6  206    7  38.5 -99.9 1021.0 -9.9 -9.999 -99.9 -99.99 -9.99
2019/01/16 00:18 EST    1.41   2.55    6  207    7  38.5 -99.9 1020.8 -9.9 -9.999 -99.9 -99.99 -9.99
2019/01/16 00:24 EST    1.47   2.64    7  198    8  38.3 -99.9 1020.7 -9.9 -9.999 -99.9 -99.99 -9.99
2019/01/16 00:30 EST    1.52   2.70    6  214    8  38.3 -99.9 1020.7 -9.9 -9.999 -99.9 -99.99 -9.99
2019/01/16 00:36 EST    1.58   2.77    7  214    8  38.1 -99.9 1020.6 -9.9 -9.999 -99.9 -99.99 -9.99
2019/01/16 00:42 EST    1.64   2.82    7  204    9  38.1 -99.9 1020.6 -9.9 -9.999 -99.9 -99.99 -9.99
2019/01/16 00:48 EST    1.70   2.87    9  207   10  38.1 -99.9 1020.5 -9.9 -9.999 -99.9 -99.99 -9.99
2019/01/16 00:54 EST    1.75   2.89    8  207    9  38.1 -99.9 1020.5 -9.9 -9.999 -99.9 -99.99 -9.99
2019/01/16 01:00 EST    1.81   2.93    9  216   10  38.3 -99.9 1020.6 -9.9 -9.999 -99.9 -99.99 -9.99
2019/01/16 01:06 EST    1.86   2.98    8  216    9  38.3 -99.9 1020.5 -9.9 -9.999 -99.9 -99.99 -9.99
2019/01/16 01:12 EST    1.91   3.05    7  216    9  38.3 -99.9 1020.5 -9.9 -9.999 -99.9 -99.99 -9.99
2019/01/16 01:18 EST    1.96   3.06    8  215    9  38.1 -99.9 1020.4 -9.9 -9.999 -99.9 -99.99 -9.99
2019/01/16 01:24 EST    2.01   3.12    8  218   10  38.3 -99.9 1020.4 -9.9 -9.999 -99.9 -99.99 -9.99
2019/01/16 01:30 EST    2.06   3.15    7  218    9  38.3 -99.9 1020.4 -9.9 -9.999 -99.9 -99.99 -9.99
2019/01/16 01:36 EST    2.10   3.21    7  219    9  38.3 -99.9 1020.4 -9.9 -9.999 -99.9 -99.99 -9.99
2019/01/16 01:42 EST    2.14   3.24    8  216   11  38.3 -99.9 1020.4 -9.9 -9.999 -99.9 -99.99 -9.99
2019/01/16 01:48 EST    2.18   3.27    8  218   10  38.3 -99.9 1020.5 -9.9 -9.999 -99.9 -99.99 -9.99
2019/01/16 01:54 EST    2.22   3.32    8  221   10  38.3 -99.9 1020.7 -9.9 -9.999 -99.9 -99.99 -9.99
2019/01/16 02:00 EST    2.26   3.34    9  218   11  38.3 -99.9 1020.7 -9.9 -9.999 -99.9 -99.99 -9.99
2019/01/16 02:06 EST    2.29   3.37   10  219   12  37.9 -99.9 1020.7 -9.9 -9.999 -99.9 -99.99 -9.99
2019/01/16 02:12 EST    2.32   3.39   10  218   12  37.8 -99.9 1020.7 -9.9 -9.999 -99.9 -99.99 -9.99
2019/01/16 02:18 EST    2.35   3.41   10  222   12  37.8 -99.9 1020.8 -9.9 -9.999 -99.9 -99.99 -9.99
2019/01/16 02:24 EST    2.37 -99.99 -999 -999 -999 -99.9 -99.9 -999.9 -9.9 -9.999 -99.9 -99.99 -9.99
2019/01/16 02:30 EST    2.40 -99.99 -999 -999 -999 -99.9 -99.9 -999.9 -9.9 -9.999 -99.9 -99.99 -9.99
2019/01/16 02:36 EST    2.42 -99.99 -999 -999 -999 -99.9 -99.9 -999.9 -9.9 -9.999 -99.9 -99.99 -9.99

Revised: 08/08/2018
NOAA / National Ocean Service
Web site owner: Center for Operational Oceanographic Products and Services